Auction Results
Vintage Lot Name Bottles Auction End Date Hammer Price
2007-2008 Linne Calodo "Sticks & Stones" Paso Robles Rhône Blend Vertical 2 8/19/2014 $107.50
2007 Foxen "Select Smoke Sea Smoke Vineyard" Sta. Rita Hills Pinot Noir 2 8/19/2014 $236.00
1976 Mouton-Rothschild, Pauillac (375ml) 2 8/19/2014 $271.00
1974 Beaulieu Vineyard Napa Valley Cabernet Sauvignon 3 8/19/2014 $460.00
2012 Aubert "Lauren Vineyard" Sonoma County Chardonnay 2 8/19/2014 $417.00
2010 Sine Qua Non "The Monkey" White 1 8/19/2014 $125.00
2012 Williams-Selyem Central Coast Pinot Noir 3 8/19/2014 $165.00
2009 Bellevue-Mondotte, St-Emilion 1 8/18/2014 $272.00
2005 Pontet-Canet, Pauillac (1.5L) 3 8/18/2014 $975.00
2002 Sloan Rutherford Proprietary Red 1 8/18/2014 $620.00
1998 L'Evangile, Pomerol 6 8/18/2014 $925.00
2000 Lynch-Bages, Pauillac 2 8/18/2014 $390.00
2008 Hundred Acre "Precious" Napa Valley Cabernet Sauvignon 2 8/18/2014 $605.00
1995 Pétrus, Pomerol 1 8/18/2014 $1,861.00
2002 Mouton-Rothschild, Pauillac 2 8/18/2014 $700.00
2007 DRC Domaine de la Romanée-Conti Le Montrachet Grand Cru 1 8/18/2014 $3,575.00
2010 Joseph Phelps "Backus" Oakville Cabernet Sauvignon (OWC) 6 8/18/2014 $935.00
2007 Linne Calodo "Screwball" Paso Robles Syrah 2 8/18/2014 $94.00
2009 Kendall-Jackson "Camelot Highlands Estate" Santa Maria Valley Chardonnay 2 8/18/2014 $62.26
2007 Foxen "Sea Smoke Vineyard" Santa Rita Hills Pinot Noir 2 8/18/2014 $190.00
2008 Cayuse "God Only Knows" Walla Walla Valley Grenache 3 8/18/2014 $283.00
1996 Bonneau du Martray Corton-Charlemagne 1 8/18/2014 $140.00
2006 Alban Edna Valley Grenache 2 8/18/2014 $215.00
1990 Bollinger Grand Année Brut Champagne 1 8/18/2014 $210.00
1986 Tinto Pesquera Crianza Ribero del Duero 1 8/18/2014 $50.00
2006 & 2007 Nino Negri Valtellina Superiore Tasting Lot 4 8/18/2014 $100.00
2009 Domaine Jacques Prieur Corton-Bressandes Grand Cru 2 8/18/2014 $316.66
1973 Stag's Leap Wine Cellars "SLV" Napa Valley Cabernet Sauvignon 1 8/18/2014 $485.00
1985 Prunotto "Cannubi" Barolo 1 8/18/2014 $123.00
1988-1989 Château de Beaucastel Châteauneuf-du-Pape Vertical 2 8/18/2014 $236.00
1985 Poliziano Vino Nobile di Montepulciano Riserva 1 8/18/2014 $67.00
2012 Kosta Browne "One Sixteen" Russian River Valley Chardonnay 2 8/18/2014 $99.77
1999 Dalla Valle Napa Valley Cabernet Sauvignon 2 8/18/2014 $227.00
2005 Domaine du Pégaü "Cuvée Laurence" Chateauneuf-du-Pape 3 8/18/2014 $360.00
2012 Aubert "Larry Hyde & Sons Vineyard" Carneros Chardonnay 2 8/18/2014 $242.00
2006 Shafer "Hillside Select" Stags Leap District Cabernet Sauvignon 1 8/18/2014 $185.00
1985 Moët & Chandon "Cuvée Dom Pérignon" Brut Champagne (1.5L) 1 8/17/2014 $490.00
1990 Domaine Ponsot "Clos de la Roche" Veilles Vignes 1 8/17/2014 $1,000.00
2001 Bryant Family Napa Valley Cabernet Sauvignon 2 8/17/2014 $310.00
2006 Pontet-Canet, Pauillac (OWC) 7 8/17/2014 $825.00
2005 Margaux, Margaux 1 8/17/2014 $900.00
2005 Nickel & Nickel Napa Valley Cabernet Sauvignon Horiztonal 5 8/17/2014 $370.00
1999 Pavie, St-Emilion 6 8/17/2014 $865.00
2000 Ducru-Beaucaillou, St-Julien 4 8/17/2014 $806.00
2002 Haut-Brion, Pessac-Léognan 3 8/17/2014 $765.00
2010 Joseph Phelps "Insignia" Napa Valley Cabernet Sauvignon (OWC) 6 8/17/2014 $952.00
1982 Mouton-Rothschild, Pauillac 2 8/17/2014 $1,930.00
2009 Domaine Louis Jadot (Andre Gagey) Nuits-St-Georges 1er Cru "Les Boudots" 2 8/17/2014 $145.00
1988 Podere Il Palazzino "Grosso Sanese" Chianti Classico 1 8/17/2014 $51.00
1982 Poggio Antico Brunello di Montalcino 1 8/17/2014 $107.00
1985 Pio Cesare Barolo 1 8/17/2014 $82.00
1985 Paul Jaboulet Aîné "La Chapelle" Hermitage 1 8/17/2014 $155.00
1985 Toscana Tasting Lot 2 8/17/2014 $116.50
1989-1990 M. Chapoutier "La Sizeranne" Hermitage Vertical 2 8/17/2014 $125.00
1988 Nozzole "Il Pareto" Toscana 1 8/17/2014 $60.00
1990 Paolo Scavino "Bric del Fiasc" Barolo 1 8/17/2014 $177.50
1988 Monsanto "Il Poggio" Chianti Classico Riserva 1 8/17/2014 $61.00
2007 Domaine Giraud "Gallimardes" Châteauneuf-du-Pape 3 8/17/2014 $190.00
1979 & 1983 Lynch Bages, Pauillac Tasting Lot 2 8/17/2014 $233.51
1989 Mas de Daumas Gassac Languedoc 1 8/17/2014 $69.00
1980 Marques Murrieta Castillo Ygay Rioja Reserva 1 8/17/2014 $100.00
1983 Bordeaux Tasting Lot 2 8/17/2014 $180.00
1988 Marchesi Antinori "Tignanello" Toscana 1 8/17/2014 $130.00
1978 Marcarini "La Serra" Barolo 1 8/17/2014 $156.00
1988-1990 Domaine Trevallon Coteaux d'Aix en Provence Les Baux Vertical 3 8/17/2014 $318.00
1990 Ornellaia Toscana 1 8/17/2014 $210.80
1984-1985 & 1989 Bodegas Alejandro Fernandez Tinto Pesquera Crianza Ribero del Duero Tasting Lot 3 8/17/2014 $103.00
1985 Marcarini "Brunate" Barolo 1 8/17/2014 $165.00
1983 Luigi Righetti "Capitel De' Roari" Amarone della Valpolicella Classico 1 8/17/2014 $68.00
1982-1983 Beychevelle, St-Julien Vertical 2 8/17/2014 $250.00
1982 La Lagune, Haut-Médoc 1 8/17/2014 $140.00
1982 Dunn Napa Valley Cabernet Sauvignon 1 8/17/2014 $133.00
1999 Zind Humbrecht "Heimbourg" Gewürztraminer 4 8/17/2014 $176.88
1983 du Tertre, Margaux 1 8/17/2014 $44.57
1988 Domaine Tempier "Cuvée Speciale" Bandol 1 8/17/2014 $175.00
1985 Cos d'Estournel, St-Estèphe 1 8/17/2014 $140.00
2012 Aubert "Eastside Vineyard" Russian River Valley Chardonnay 2 8/17/2014 $471.00
2011 Kosta Browne "Garys' Vineyard" Santa Lucia Highlands Pinot Noir 2 8/17/2014 $167.00
2006 Pierre Usseglio "Mon Aïeul" Châteauneuf-du-Pape 3 8/17/2014 $215.00
2010 Domaine du Pégaü "Cuvée Réservée" Châteauneuf-du-Pape 3 8/17/2014 $260.00
2004-2006 Palmer, Margaux Vertical 3 8/17/2014 $497.00
2001 Dalla Valle Napa Valley Cabernet Sauvignon 1 8/17/2014 $110.80
2007 Dana Estates "Lotus Vineyard" Rutherford Cabernet Sauvignon 1 8/16/2014 $850.00
2007 Sloan Napa Valley Red Blend 1 8/16/2014 $625.00
2006 Tenuta Sette Ponti "Oreno" Toscana (OWC) 11 8/16/2014 $731.00
2008 Quilceda Creek Columbia Valley Cabernet Sauvignon 2 8/16/2014 $380.00
1996 Pontet-Canet, Pauillac 4 8/16/2014 $330.00
2007 Domaine de Montille Puligny-Montrachet 1er Cru "Cailleret" 3 8/16/2014 $475.00
2004 Nickel & Nickel Napa Valley Cabernet Sauvignon Horiztonal 6 8/16/2014 $381.00
1989 Lafite-Rothschild, Pauillac 1 8/16/2014 $530.00
2000 Pavie Macquin, St-Emilion 3 8/16/2014 $310.00
2004 Mouton Rothschild, Pauillac 2 8/16/2014 $655.00
1999 E. Guigal "La Turque" Côte-Rôtie 3 8/16/2014 $2,246.00
2003 Shafer "Hillside Select" Stags Leap District Cabernet Sauvignon (OWC) 6 8/16/2014 $1,900.00
2009 Joseph Phelps "Insignia" Napa Valley Cabernet Sauvignon (OWC) 6 8/16/2014 $845.00
1982 Grand-Puy-Lacoste, Pauillac 1 8/16/2014 $240.00
1982-1983 Antinori "Tignanello" Toscana Vertical 2 8/16/2014 $207.02
1985 Giuseppe E Figlio Mascarello "Santo Stefano di Perno" Barolo 1 8/16/2014 $176.00
2007 Domaine Santa Duc "Grande Grenache 66" Gigondas 2 8/16/2014 $145.00
1985 Gabbiano Ania 1 8/16/2014 $32.00
1990 Zind Humbrecht Tasting Lot 2 8/16/2014 $145.00
1985 Fontodi "Flaccianello" Toscana 1 8/16/2014 $125.00
1980 Dunn Howell Mountain Napa Valley Cabernet Sauvignon 1 8/16/2014 $185.00
1990 Ferraton "Cuvee des Miaux" Hermitage 1 8/16/2014 $156.77
1977 Sebastiani Northern California Pinot St George 2 8/16/2014 $81.81
1982 du Tertre, Margaux 1 8/16/2014 $87.00
1980 Diamond Creek "Volcanic Hill" Napa Valley Cabernet Sauvignon 1 8/16/2014 $100.00
2002 Philippe Delesvaux Coteaux du Layon Sélection de Grains Nobles (500ml) 4 8/16/2014 $271.00
2005 Domaine Ferrand Châteauneuf-du-Pape 3 8/16/2014 $116.00
1992 Clos Erasmus Priorat 1 8/16/2014 $220.00
1978 Cos d'Estournel, St-Estèphe 1 8/16/2014 $99.00
1989 Château Pradeaux Bandol 1 8/16/2014 $61.00
2007 Domaine de Saint Préfert "Réserve Auguste Favier" Châteauneuf-du-Pape 2 8/16/2014 $153.99
1985 Clerico "Ciabot Mentin Ginestra" Barolo 1 8/16/2014 $140.00
1985 Ceretto "Bricco Asili" Barbaresco 1 8/16/2014 $100.00
1980 Caymus Napa Valley Cabernet Sauvignon 1 8/16/2014 $130.00
2011 Kosta Browne "Gap's Crown Vineyard" Sonoma Coast Pinot Noir 2 8/16/2014 $160.00
2005 Domaine Dupont-Tisserandot Charmes-Chambertin Grand Cru 3 8/16/2014 $605.00
2009 Domaine Louis Jadot (Heritiers) Corton-Charlemagne Grand Cru 3 8/16/2014 $361.00
2010 Le Vieux Donjon Châteauneuf-du-Pape 3 8/16/2014 $175.00
2011 Aubert Sonoma Coast Chardonnay Horizontal 3 8/16/2014 $390.00
2012 Carlisle Sonoma County Zinfandel 4 8/16/2014 $130.00
2007 Domaine du Pégaü "Cuvée Réservée" Châteauneuf-du-Pape 3 8/16/2014 $230.00
2007 Clos des Papes Châteauneuf-du-Pape 3 8/16/2014 $525.00
2001 & 2003 Château de Beaucastel Châteauneuf-du-Pape Tasting Lot 2 8/16/2014 $175.00
1993 California Red Tasting Lot 6 8/16/2014 $220.00
1999 Williams Selyem Sonoma County Pinot Noir (1.5L) 1 8/16/2014 $100.00
2008 Sine Qua Non "The Line" Grenache 1 8/16/2014 $275.00
1997 Monbousquet, St-Emilion (OWC) 12 8/15/2014 $510.00
1993 Léoville-Las-Cases, St-Julien 3 8/15/2014 $343.00
2002 Nickel & Nickel Napa Valley Cabernet Sauvignon Horiztonal 6 8/15/2014 $425.00
1989 La Dominique, St-Emilion 6 8/15/2014 $685.00
1989 La Lagune, Haut-Médoc (OWC) 5 8/15/2014 $312.00
1996 M. Chapoutier "De L'Orée" Ermitage Blanc 3 8/15/2014 $460.00
1988 Lafite-Rothschild, Pauillac 3 8/15/2014 $1,470.00
2005 La Mission Haut-Brion, Pessac-Léognan 6 8/15/2014 $2,515.00
1995 Pichon-Lalande, Pauillac 2 8/15/2014 $370.00
2006-2007 Sine Qua Non "To The Rescue" Grenache Vin de Paille Vertical (375ml) (OWC) 4 8/15/2014 $666.66
1985 Léoville-Barton, St-Julien 3 8/15/2014 $385.00
2003 Angélus, St-Emilion 2 8/15/2014 $420.00
2008 Joseph Phelps "Insignia" Napa Valley Bordeaux Blend (OWC) 6 8/15/2014 $875.00
2003-2005 Pavie, St-Emilion Vertical 3 8/15/2014 $652.00
1986 Mouton-Rothschild, Pauillac 1 8/15/2014 $750.00
1973 Caymus Estate Napa Valley Cabernet Sauvignon 1 8/15/2014 $181.00
2005 Sansonnet, St-Emilion 3 8/15/2014 $79.00
2007 Domaine La Barroche "Fiancée" Châteauneuf-du-Pape 3 8/15/2014 $155.00
1982 Bruno Giacosa Barbaresco 1 8/15/2014 $205.00
2005 Lancaster Estate Alexander Valley Cabernet Sauvignon 4 8/15/2014 $185.00
1982 Canon, St-Emilion 1 8/15/2014 $255.00
1985 Bruno Giacosa "Gallina di Neive" Barbaresco 1 8/15/2014 $335.00
2004 Lancaster Estate Alexander Valley Cabernet Sauvignon 4 8/15/2014 $205.00
1983 Bodegas Alejandro Fernandez "Pesquera" Crianza Tinto Ribera del Duero 1 8/15/2014 $48.00
2004 Kilikanoon "Covenant" Shiraz Clare Valley South Australia 2 8/15/2014 $64.98
1970 Beaulieu Vineyard "Georges de Latour Private Reserve" Napa Valley Cabernet Sauvignon 1 8/15/2014 $201.00
1998 Schoffit "Clos St Theobald" Rangen de Thann Tokay Pinot Gris SGN 1 8/15/2014 $47.00
2004 Lazzeretti Brunello di Montalcino 1 8/15/2014 $38.00
2005 Keenan Spring Mountain District Cabernet Sauvignon 2 8/15/2014 $96.00
2005 Domaine Groffier Gevrey-Chambertin 3 8/15/2014 $162.00
2001 Chateau Montelena "Estate" Napa Valley Cabernet Sauvignon 3 8/15/2014 $230.00
2006 Doisy-Daëne "LExtravagant" Sauternes (375ml) (OWC) 2 8/15/2014 $310.00
2011 Antica Terra "Antikythera" Emola-Amity Hills Pinot Noir 2 8/15/2014 $190.00
2012 Carlisle Russian River Valley Zinfandel Horizontal 4 8/15/2014 $145.00
2012 Kosta Browne Sonoma Coast Pinot Noir 3 8/15/2014 $270.00
2005 Pierre Usseglio "Mon Aieul" Châteauneuf-du-Pape 2 8/15/2014 $171.00
2007 Le Vieux Donjon Châteauneuf-du-Pape 3 8/15/2014 $176.01
2007 Paul Autard "La Côte Ronde" Châteauneuf-du-Pape 3 8/15/2014 $156.63
1998 Domaine du Vieux Télégraphe "La Crau" Châteauneuf-du-Pape 2 8/15/2014 $175.00
2007 Domaine du Clos du Caillou "Reserve les Clos du Caillou" Chateauneuf-du-Pape 3 8/15/2014 $268.00
2005 Domaine du Pégaü "Cuvée Réservée" Châteauneuf-du-Pape 3 8/15/2014 $205.00
2000 Tommaso Bussola "TB" Recioto della Valpolicella (500ml) 2 8/15/2014 $126.00
2005 Clos du Mont-Olivet "Cuvée du Papet" Châteauneuf-du-Pape 3 8/15/2014 $176.00
2007 Aubert "Reuling Vineyard" Sonoma Coast Pinot Noir 1 8/15/2014 $155.00
2002 Marquis Philips "Integrity" Shiraz McLaren Vale South Australia (OCB) 2 8/15/2014 $185.00
2006 Saxum "James Berry Vineyard" Paso Robles Rhône Blend (1.5L) 1 8/15/2014 $166.00
2002 Shafer "Hillside Select" Stags Leap District Cabernet Sauvignon 1 8/15/2014 $401.00
2002 Sine Qua Non "Mr. K The Noble Man" Edna Valley Chardonnay (375ml) 1 8/15/2014 $105.00
2010 Bond "Quella" Napa Valley Bordeaux Blend (1.5L) 1 8/14/2014 $600.00
2003 Robert Arnoux Romanée St. Vivant Grand Cru 2 8/14/2014 $505.00
1999 Calera Mt. Harlan Pinot Noir Horizontal 6 8/14/2014 $613.00
2009 Abreu "Thorevilos" Napa Valley Proprietary Red (OCB) 2 8/14/2014 $735.00
2007 Domaine Leflaive Puligny-Montrachet 1er Cru "Clavoillons" 12 8/14/2014 $1,152.00
2011 Blankiet "Paradise Hills Vineyard" Napa Valley Bordeaux Blend 4 8/14/2014 $540.00
2010 Screaming Eagle Napa Valley Cabernet Sauvignon (OWC) 3 8/14/2014 $7,075.00
2002 La Mission Haut-Brion, Pessac-Léognan 6 8/14/2014 $805.00
1985 Léoville-Las-Cases, St-Julien 2 8/14/2014 $466.78
2001 Domaine Leroy Romanée St-Vivant Grand Cru 1 8/14/2014 $1,452.00
1998 J.L. Chave Hermitage Rouge 3 8/14/2014 $626.00
1970 Heitz Cellar "Martha's Vineyard" Napa Valley Cabernet Sauvignon 2 8/14/2014 $840.00
2000 Cos d'Estournel, St-Estèphe 4 8/14/2014 $626.00
2007 Kosta Browne Sonoma Pinot Noir Hoztional 4 8/14/2014 $403.00
2005 Sine Qua Non "Atlantis Fe203-2a" Grenache 2 8/14/2014 $590.00
2007 Marcassin "Three Sisters Vineyard" Sonoma Coast Pinot Noir 2 8/14/2014 $292.00
2005 Joseph Phelps "Insignia" Napa Valley Bordeaux Blend (OWC) 6 8/14/2014 $876.00
1990 Lafite-Rothschild, Pauillac 2 8/14/2014 $1,450.00
2012 Carlisle Zinfandel Horizontal 4 8/14/2014 $180.00
1999 Bruno Giacosa "Le Rocche del Falletto di Serralunga" Barolo 2 8/14/2014 $585.00
1996 Robert Mondavi "Reserve" Napa Valley Cabernet Sauvignon 2 8/14/2014 $135.00
2011 Rivers-Marie Sonoma Coast Pinot Noir Horizontal 2 8/14/2014 $145.00
2003 Napa Vallery Cabernet Sauvignon Tasting Lot 4 8/14/2014 $388.00
2009 Rhys "Family Farm Vineyard" San Mateo County Pinot Noir 2 8/14/2014 $141.00
2009 Cobb Sonoma Coast Pinot Noir Horizontal (1.5L) 2 8/14/2014 $282.00
2010 Pierre Usseglio "Cuvée de Mon Aïeul" Châteauneuf-du-Pape 3 8/14/2014 $265.00
2007 Olivier Hillaire "Les Petits Pieds d'Armand" Châteauneuf-du-Pape 3 8/14/2014 $211.00
2010 M. Chapoutier "Barbe Rac" Châteauneuf-du-Pape 3 8/14/2014 $275.10
2007 Paul Autard "Cuvée Juline" Châteauneuf-du-Pape 3 8/14/2014 $150.00
2010 La Ferme du Mont "Côtes du Capelan" Châteauneuf-du-Pape 3 8/14/2014 $231.50
1998 Le Vieux Donjon Châteauneuf-du-Pape 3 8/14/2014 $235.00
2005 Bonnefond "Les Rochains" Côte-Rôtie 3 8/14/2014 $217.00
2005 Domaine des Remizieres "Cuvée Emilie" Hermitage 3 8/14/2014 $147.89
2007 Halos de Jupiter (Philip Cambie) Châteauneuf-du-Pape 3 8/14/2014 $146.03
2005 Château de Saint Cosme Gigondas 3 8/14/2014 $126.12
2010 Domaine du Vieux Telegraphe "La Crau" Châteauneuf-du-Pape 3 8/14/2014 $265.00
2005 E. Guigal "Château d'Ampuis" Côte-Rotie 3 8/14/2014 $321.00
2007 Domaine St. Damien "Les Souteyrades" Gigondas 2 8/14/2014 $126.55
2006 Domaine de la Janasse Châteauneuf du Pape "Vieilles Vignes" 3 8/14/2014 $235.00
2010 Domaine du Clos du Caillou "Les Quartz" Châteaunuef-du-Pape 3 8/14/2014 $194.04
2000-2001 Domaine du Pégaü "Cuvée Reservée" Châteauneuf-du-Pape Vertical 3 8/14/2014 $230.00
1998 Clos du Mont-Olivet "Cuvée du Papet" Châteauneuf-du-Pape 2 8/14/2014 $135.00
2010 Château de Beaucastel Châteauneuf-du-Pape 3 8/14/2014 $275.00
2005 Delas "Les Bessards" Hermitage 3 8/14/2014 $351.00
2005 Léoville-Barton, St-Julien 5 8/14/2014 $585.00
2000 Branaire-Ducru, St-Julien 4 8/14/2014 $350.00
2008 Ducru-Beaucaillou, St-Julien 2 8/14/2014 $261.00
2004 Saxum "Bone Rock" James Berry Vineyard Paso Robles Syrah (1.5L) 1 8/14/2014 $150.00
2012 Aubert "UV-SL Vineyard" Sonoma Coast Chardonnay (1.5L) 1 8/14/2014 $251.53
2003 Pichon-Lalande, Pauillac (OWC) 3 8/14/2014 $370.00
2005 Pavie-Decesse, St-Emilion 2 8/14/2014 $361.00
1997 Chateau Montelena "Estate" Napa Valley Cabernet Sauvignon 1 8/14/2014 $191.00
1996 Mouton Rothschild, Pauillac 1 8/14/2014 $400.00
2005 Shafer "Hillside Select" Stags Leap District Cabernet Sauvignon 1 8/14/2014 $250.00
1999 Williams Selyem Russian River Valley Pinot Noir (1.5L) 1 8/14/2014 $100.00
2005 Sine Qua Non "Mr. K Noble Man" Chardonnay (375ml) 2 8/14/2014 $207.42
1998 Monbousquet, St-Emilion (OWC) 12 8/13/2014 $890.00
2006-2009 Screaming Eagle "Second Flight" Napa Valley Proprietary Red Vertical (OWC) 8 8/13/2014 $3,450.00
1987 Chateau Montelena "Estate" Napa Valley Cabernet Sauvignon 4 8/13/2014 $763.00
2007 Domaine Leflaive Chevalier-Montrachet Grand Cru (3L) (OWC) 1 8/13/2014 $2,315.00
1994 Penfolds Grange Shiraz South Australia 1 8/13/2014 $390.00
2001 Domaine Leroy Musigny Grand Cru 1 8/13/2014 $3,101.00
1995 Petrus, Pomerol (1.5L) 1 8/13/2014 $3,601.00
1989 La Mission Haut-Brion, Pessac-Léognan 3 8/13/2014 $2,465.00
2009 Hundred Acre "Few & Far Between " Napa Valley Cabernet Sauvignon 3 8/13/2014 $689.00
Assorted Pichon-Lalande, Pauillac Tasting Lot 4 8/13/2014 $480.00
2005 Sine Qua Non "Atlantis Fe203-2b" Grenache 2 8/13/2014 $540.00
2007 Marcassin "Three Sisters Vineyard" Sonoma Coast Chardonnay 3 8/13/2014 $458.00
1982 Cos d'Estournel, St-Estèphe 6 8/13/2014 $1,811.00
2001 Rieussec, Sauternes 6 8/13/2014 $1,030.00
2012 Kosta Browne Russian River Valley Pinot Noir 4 8/13/2014 $294.00
1997 Joseph Phelps "Insignia" Napa Valley Proprietary Red (3L) 1 8/13/2014 $950.00
2004 Shafer "Hillside Select" Stags Leap District Cabernet Sauvignon (OWC) 6 8/13/2014 $1,460.00
2007 Domaine Santa Duc "Prestige des Hautes Garrigues" Gigondas 3 8/13/2014 $194.00
2007 Domaine Saint Damien "Vieilles Vignes" Gigondas 5 8/13/2014 $205.00
2005 Domaine Préfert "Collection Charles Giraud" Châteauneuf-du-Pape 3 8/13/2014 $180.00
2005 Domaine Paul Autard "Côte Ronde" Châteauneuf-du-Pape 3 8/13/2014 $160.00
2006 Grand Veneur Châteauneuf-du-Pape Vieilles Vignes 3 8/13/2014 $210.00
2005 Domaine Giraud "Grenaches de Pierre" Châteauneuf-du-Pape 2 8/13/2014 $83.00
2005 Domaine La Barroche "Fiancée" Châteauneuf-du-Pape 3 8/13/2014 $127.00
2007 Domaine Gauby "Muntada" Côtes du Roussillon Villages 3 8/13/2014 $240.00
2010 Domaine Giraud "Gallimardes" Châteauneuf-du-Pape 3 8/13/2014 $306.83
2005 Domaine du Vieux Telegraphe "La Crau" Châteauneuf-du-Pape 3 8/13/2014 $205.00
2010 Domaine Ferrand Châteauneuf-du-Pape 3 8/13/2014 $165.00
1998 Domaine du Pégaü "Cuvée Laurence" Châteauneuf-du-Pape 2 8/13/2014 $248.00
2007 Domaine du Caillou "Les Quartz" Châteaunuef-du-Pape 3 8/13/2014 $172.00
2005 Domaine du Clos du Caillou "Les Quartz" Châteaunuef-du-Pape 2 8/13/2014 $103.23
2005 Domaine de Saint Préfert "Auguste Favier Réserve" Châteauneuf-du-Pape 2 8/13/2014 $90.00
2007 Domaine de Cristia "Renaissance" Châteauneuf-du-Pape 3 8/13/2014 $136.00
2005 Domaine de la Janasse "Vieilles Vignes" Chateauneuf-du-Pape 3 8/13/2014 $333.00
2003 Delas "Les Bessards" Hermitage 3 8/13/2014 $283.73
2005 Clos du Mont Olivet Châteauneuf-du-Pape 3 8/13/2014 $125.00
2005 Clos des Papes Châteauneuf-du-Pape 2 8/13/2014 $215.00
2005 Clos Saint-Jean Châteauneuf du Pape "Deus Ex Machina" 2 8/13/2014 $600.00
2007 Château de Beaucastel Châteauneuf-du-Pape 3 8/13/2014 $281.00
1998 Bosquet des Papes Châteauneuf-du-Pape 2 8/13/2014 $133.00
1974 Sebastiani "Proprietor's Reserve" Northern California Cabernet Sauvignon 6 8/13/2014 $370.00
2005 Rauzan-Ségla, Margaux 2 8/13/2014 $231.00

Chambers "Rosewood Vineyards" Rutherglen Rare Muscat 1 8/13/2014 $260.00
1969 Louis Martini Napa Valley Cabernet Sauvignon 6 8/13/2014 $465.00
2006 Ducru-Beaucaillou, St-Julien 2 8/13/2014 $261.00
1995 Pontet-Canet, Pauillac 2 8/13/2014 $192.00
2012 Aubert "Sugar Shack" Rutherford Chardonnay (1.5L) 1 8/13/2014 $430.00
1990 Mouton-Rothschild, Pauillac 1 8/13/2014 $330.00
2000 Léoville-Barton, St-Julien 1 8/13/2014 $135.00
2000 & 2003 Pavie Decesse, St-Emilion Tasting Lot 2 8/13/2014 $215.00
1998 Sine Qua Non "Veiled - Shea Vineyard" Pinot Noir 1 8/13/2014 $415.00
2001 Williams Selyem Russian River Valley Pinot Noir (1.5L) 1 8/13/2014 $105.00
2010 Saxum Paso Robles Horizontal 2 8/13/2014 $185.00
1989 & 1995 Trotanoy, Pomerol 3 8/12/2014 $500.00
2003 Zind-Humbrecht Clos Jebsal Pinot Gris 6 8/12/2014 $265.00
1996 Salon "Le Mesnil" Brut Blanc de Blancs Champagne 1 8/12/2014 $404.07
1996 Penfolds "Grange" Shiraz South Australia 1 8/12/2014 $410.00
1989 Troplong Mondot, St-Emilion 2 8/12/2014 $292.00
2000 Le Plus de la Fleur de Boüard, Lalande-de-Pomerol 3 8/12/2014 $900.00
1985 Lynch Bages, Pauillac (5L) 1 8/12/2014 $1,280.00
1995 Margaux, Margaux 1 8/12/2014 $525.00
2005 Léoville Las Cases, St-Julien 6 8/12/2014 $1,706.00
1999 Pétrus, Pomerol 1 8/12/2014 $1,596.00
2001 Domaine Leroy Chambertin Grand Cru 1 8/12/2014 $2,650.00
1998 Haut-Brion, Pessac-Léognan 1 8/12/2014 $410.00
2003 Cos d'Estournel, St-Estèphe 4 8/12/2014 $777.00
2005 Sine Qua Non "The Naked Truth" Sta. Rita Hills Grenache 2 8/12/2014 $1,650.00
2006 Marcassin "Marcassin Vineyard" Sonoma Coast Chardonnay 2 8/12/2014 $371.00
2002 DRC Domaine de la Romanée-Conti Montrachet Grand Cru 1 8/12/2014 $4,101.00
2012 Kosta Browne Santa Lucia Highlands Pinot Noir 4 8/12/2014 $300.00
2001 Joseph Phelps "Insignia" Napa Valley Bordeaux Blend 3 8/12/2014 $626.00
2006 & 2010 Domaine de la Mordorée "Reine de Bois" Châteauneuf-du-Pape Tasting Lot 4 8/12/2014 $251.00
2007 Domaine de la Vieille Julienne Châteauneuf-du-Pape 3 8/12/2014 $186.00
1998 Domaine de la Vieille Julienne Châteauneuf-du-Pape Reservé 2 8/12/2014 $115.00
2007 Domaine de la Janasse "Chaupin" Châteauneuf-du-Pape 3 8/12/2014 $306.00
2010 Domaine de Cristia "Vieilles Vignes" Châteauneuf-du-Pape 3 8/12/2014 $180.75
2005 Domaine de la Mordorée "La Reine des Bois" Châteauneuf-du-Pape 3 8/12/2014 $212.00
2005 Domaine de Cristia "Renaissance" Châteauneuf-du-Pape 2 8/12/2014 $116.11
2010 Domaine Charvin Châteauneuf-du-Pape 3 8/12/2014 $205.00
2007 Domaine de Cristia "Vieilles Vignes" Châteauneuf-du-Pape 3 8/12/2014 $265.00
2010 Clos du Mont Olivet "Cuvée des Papet" Châteauneuf-du-Pape 3 8/12/2014 $332.00
1999 Delas "Les Bessards" Hermitage 2 8/12/2014 $195.00
2006 Clos Saint Jean "Combe des Fous" Châteauneuf-du-Pape 3 8/12/2014 $345.00
2005 Clos du Caillou "Clos Du Caillou Reserve" Châteauneuf-du-Pape 3 8/12/2014 $241.36
2004 Clos des Papes Châteauneuf-du-Pape 2 8/12/2014 $195.00
2005 Châteauneuf-du-Pape Pierre Usseglio "Reserve des Deux Freres" 3 8/12/2014 $310.00
2005 Château La Nerthe "Cuvée des Cadettes" Châteauneuf-du-Pape 3 8/12/2014 $271.00
2007 Château de Saint Cosme "Le Poste" Gigondas 3 8/12/2014 $303.00
2007 Château de Saint Cosme "Valbelle" Gigondas 3 8/12/2014 $180.00
2007 Château de Saint Cosme "Le Claux" Gigondas 3 8/12/2014 $250.00
2006 Château de Beaucastel Châteauneuf-du-Pape 3 8/12/2014 $225.00
1999 Chapoutier Ermitage "L'Ermite" Rouge 2 8/12/2014 $467.00
2010 La Bastide Saint Dominique Châteauneuf-du-Pape 3 8/12/2014 $92.00
2005 Bosquet des Papes "Cuvée Chante Le Merle" Châteauneuf-du-Pape 3 8/12/2014 $110.00
2011 Scarecrow "M. Étain" Napa Valley Cabernet Sauvignon (OWC) 2 8/12/2014 $210.00
2009-2010 Carte Blanche Napa Valley Cabernet Sauvignon Vertical 2 8/12/2014 $180.00
1972 Sterling Napa Valley Cabernet Sauvignon 5 8/12/2014 $276.00
2010 Robert Mondavi Oakville Cabernet Sauvignon 2 8/12/2014 $82.00
1993 Chateau Montelena "Estate" Napa Valley Cabernet Sauvignon 2 8/12/2014 $163.00
1969 J. Pedroncelli "Private Stock" Sonoma County Cabernet Sauvignon 4 8/12/2014 $255.00
1974 Beaulieu Vineyard Napa Valley Cabernet Sauvignon 3 8/12/2014 $311.01
2008 Pontet-Canet, Pauillac 3 8/12/2014 $276.00
2008 Pichon-Lalande, Pauillac 3 8/12/2014 $255.00
2000 Rauzan-Segla, Margaux 2 8/12/2014 $200.00
2003 Léoville-Barton, St-Julien 2 8/12/2014 $245.00
2005 Ducru-Beaucaillou, St-Julien 2 8/12/2014 $380.00
2009 Pavie-Macquin, St-Emilion 2 8/12/2014 $160.00
2011 Saxum Paso Robles Horizontal 2 8/12/2014 $241.05
2012 Aubert "Ritchie Vineyard" Sonoma Coast Chardonnay (1.5L) 1 8/12/2014 $261.00
2008 Mouton-Rothschild, Pauillac 1 8/12/2014 $495.00
2007 Shafer "Hillside Select" Stags Leap District Cabernet Sauvignon 1 8/12/2014 $335.00
2006 Sine Qua Non "The Raven No.1" Grenache 1 8/12/2014 $270.00
1999 Williams Selyem "Rochioli Riverblock" Sonoma County Pinot Noir (1.5L) 1 8/12/2014 $125.00
1990 Krug Brut Champagne (Gift Box) 1 8/11/2014 $346.10
1996 Lafleur, Pomerol 1 8/11/2014 $280.00
1998 Penfolds "Grange" Shiraz South Australia 2 8/11/2014 $710.00
1982 Trotanoy, Pomerol 2 8/11/2014 $850.00
1998 L'Evangile, Pomerol 6 8/11/2014 $1,057.00
2000 J.L. Chave Hermitage Rouge 2 8/11/2014 $408.48
1995 Pétrus, Pomerol 1 8/11/2014 $1,975.00
2000 Domaine d'Auvenay (Lalou Bize-Leroy) Bonnes-Mares Grand Cru 2 8/11/2014 $2,000.00
1995 Léoville-Las-Cases, St-Julien 2 8/11/2014 $370.00
2000 Lynch-Bages, Pauillac 2 8/11/2014 $412.00
2005 E. Guigal "Ex-Voto" Ermitage Rouge 3 8/11/2014 $470.00
2010 Harlan Estate Napa Valley Bordeaux Blend (OWC) 1 8/11/2014 $605.00
1978 La Mission-Haut-Brion, Graves 1 8/11/2014 $478.00
2007 Clos Saint-Jean "La Combe des Fous" Châteauneuf-du-Pape 2 8/11/2014 $511.00
1983 Cos d'Estournel, St-Estèphe 5 8/11/2014 $437.00
2010 Joseph Phelps "Backus" Oakville Cabernet Sauvignon (OWC) 6 8/11/2014 $925.00
1982 Cheval Blanc, St-Emilion 3 8/11/2014 $2,301.00
1998 Château de Beaucastel Châteauneuf-du-Pape 4 8/11/2014 $330.00
1967 Louis Martini Napa Valley Cabernet Sauvignon 2 8/11/2014 $155.00
1974 Beaulieu "Beau Tour" Napa Valley Cabernet Sauvignon 4 8/11/2014 $270.00
1965 Louis M. Martini Napa Valley Cabernet Sauvignon 3 8/11/2014 $215.00
1985 Dominus Napa Valley Proprietary Red 2 8/11/2014 $195.00
2001 Dunn Howell Mountainn Cabernet Sauvignon 3 8/11/2014 $356.00
1994 Etude Napa Valley Cabernet Sauvignon 2 8/11/2014 $193.00
1990-1991 Chateau Montelena "Estate" Napa Valley Cabernet Sauvignon Vertical 2 8/11/2014 $260.26
1995 Dalla Valle Napa Valley Cabernet Sauvignon 2 8/11/2014 $219.10
2003 Colgin "IX Estate" Napa Valley Proprietary Red 2 8/11/2014 $385.00
2000 Araujo "Eisele Vineyard" Napa Valley Cabernet Sauvignon 2 8/11/2014 $280.00
1994 Beringer Knights Valley Tasting Lot 3 8/11/2014 $82.00
1999 Bond "Matriarch" Napa Valley Bordeaux Blend 2 8/11/2014 $181.00
1998 Turley Napa Valley Petite Syrah Horizontal 2 8/11/2014 $100.00
2008 Boudreaux Cellars Washington State Cabernet Sauvignon 4 8/11/2014 $166.00
1999 Kistler "Kistler Vineyard" Sonoma Valley Chardonnay 2 8/11/2014 $150.00
2003 Suduiraut, Sauternes 2 8/11/2014 $85.83
2005 Vinedos de Paganos "El Puntido" Rioja 3 8/11/2014 $190.00
2009-2010 Tablas Creek "Panoplie" Paso Robles Rhône Red Vertical 2 8/11/2014 $151.00
2009 Caronne Ste-Gemme, Haut-Médoc (3L) 1 8/11/2014 $160.00
2006 Siro Pacenti Brunello di Montalcino 2 8/11/2014 $186.00
2009 Prieuré-Lichine, Margaux 3 8/11/2014 $185.00
2006 Poggio Antico Brunello di Montalcino Riserva 3 8/11/2014 $340.00
2006 Pichon-Lalande, Pauillac 2 8/11/2014 $245.00
2005 Pontet-Canet, Pauillac 2 8/11/2014 $230.00
2006 Kosta Browne Sonoma Coast Pinot Noir 3 8/11/2014 $206.99
2006 Marcassin "Three Sisters Vineyard" Sonoma Coast Pinot Noir 2 8/11/2014 $351.00
2003 Philip Togni Spring Mountain Cabernet Sauvignon 2 8/11/2014 $179.00
2010 Cayuse "Cailloux Vineyard" Walla Walla Valley Syrah (OCB) 3 8/11/2014 $286.67
2007 Sine Qua Non "Labels" Syrah 1 8/11/2014 $305.00
2003 Ducru-Beaucaillou, St-Julien 3 8/11/2014 $460.00
2008 Pavie Macquin, St-Emilion 3 8/11/2014 $196.00
2001 Clerc-Milon, Pauillac 4 8/11/2014 $225.00
2000 Beychevelle, St-Julien 2 8/11/2014 $200.00
2003 Mouton-Rothschild, Pauillac 1 8/11/2014 $438.00
2005-2006 La Conseillante, Pomerol Vertical 2 8/11/2014 $360.00
2012 Aubert "Lauren Vineyard" Sonoma County Chardonnay (1.5L) 1 8/11/2014 $285.00
2004-2006 & 2008 Haut-Bailly, Pessac-Léognan Tasting Lot 4 8/11/2014 $285.00
2010 Saxum "Broken Stones" Paso Robles Rhône Blend (1.5L) 1 8/11/2014 $155.00
2008 Le Gay, Pomerol 1 8/11/2014 $107.00
2006 Shafer "Hillside Select" Stags Leap District Cabernet Sauvignon 1 8/11/2014 $175.00
1998 Williams Selyem "Rochioli Riverblock" Russian River Valley Pinot Noir (1.5L) 1 8/11/2014 $110.00
2006 Sine Qua Non "The Raven No. 9" Grenache 1 8/11/2014 $268.90
1982 La Dominique, St-Emilion 4 8/10/2014 $450.00
1975 Cheval Blanc, St-Emilion 2 8/10/2014 $562.00
2004 Dominio de Pingus "Flor de Pingus" Ribera del Duero 3 8/10/2014 $421.00
1998 Henri Bonneau "Réserve de Célestins" Châteauneuf-du-Pape 1 8/10/2014 $270.00
Assorted Léoville-Las-Cases, St-Julien Tasting Lot 4 8/10/2014 $435.00
1990 San Guido "Sassicaia" Bolgheri 1 8/10/2014 $255.00
2002 Haut-Brion, Pessac-Léognan 6 8/10/2014 $1,900.00
1982 Calon-Ségur, St-Estèphe 4 8/10/2014 $640.00
2003 E. Guigal "La Turque" Côte-Rôtie 3 8/10/2014 $1,500.00
2008 Hundred Acre "Ark Vineyard" Howell Mountain Cabernet Sauvignon 3 8/10/2014 $681.99
2001 Cos d'Estournel, St-Estèphe 3 8/10/2014 $400.00
2006 Clos Saint-Jean "Deus Ex Machina" Châteauneuf-du-Pape 3 8/10/2014 $529.00
2005 Château de Beaucastel Châteauneuf-du-Pape 4 8/10/2014 $330.00
2009 Sine Qua Non "The Thrill of Stamp Collecting" Syrah 2 8/10/2014 $495.00
2009 Joseph Phelps "Backus" Oakville Cabernet Sauvignon (OWC) 6 8/10/2014 $845.00
2000 Pichon-Lalande, Pauillac (1.5L) 2 8/10/2014 $725.00
2001 Shafer "Hillside Select" Stags Leap District Cabernet Sauvignon (1.5L) 1 8/10/2014 $677.00
2009 DRC Domaine de la Romanée-Conti La Tâche Grand Cru (OWC) 2 8/10/2014 $5,750.00
1982 Mouton-Rothschild, Pauillac 3 8/10/2014 $3,100.00
1996-2004 Dalla Valle Napa Valley Cabernet Sauvignon Vertical 9 8/10/2014 $751.00
2006 Pierre Usseglio "Mon Aïeul" Châteauneuf-du-Pape 3 8/10/2014 $215.00
1995 Philip Togni Napa Valley Cabernet Sauvignon 2 8/10/2014 $261.00
2003 Niepoort Vintage Port 4 8/10/2014 $261.00
2008 Malescot-St-Exupéry, Margaux 4 8/10/2014 $249.00
2008 Montrose, St-Estèphe 2 8/10/2014 $175.00
2007 Mas de Boislauzon "Les Deux Chênes" Châteauneuf-du-Pape 3 8/10/2014 $103.00
2004 Lascombes, Margaux 4 8/10/2014 $270.55
2008 Léoville-Barton, St-Julien 3 8/10/2014 $220.00
2004 L'Aventure "Estate Cuvée" Paso Robles Rhone Blend 5 8/10/2014 $376.00
2008 Larcis Ducasse, St-Emilion 2 8/10/2014 $135.12
2005 La Croix St. Georges, Pomerol 4 8/10/2014 $320.00
2009 Seaver Family Vineyards "GTS" Diamond Mountain District Cabernet Sauvignon 1 8/10/2014 $113.99
2005 Bordeaux Tasting Lot 4 8/10/2014 $165.00
2003 Jacques Prieur Clos Vougeot Grand Cru 2 8/10/2014 $227.00
2005 La Bienfaisance, St-Emilion 2 8/10/2014 $84.00
2003 Joh. Jos. Prüm Graacher Himmelreich Riesling Auslese Gold Capsule 3 8/10/2014 $233.00
2006 Il Poggione Brunello di Montalcino 3 8/10/2014 $165.00
2007 Isole e Olena "Cepparello" Toscana 3 8/10/2014 $208.00
2006 Il Paradiso di Frassina Brunello di Montalcino 3 8/10/2014 $113.00
2006 Fuligni Brunello di Montalcino 2 8/10/2014 $131.00
2007 Etienne Sauzet Puligny-Montrachet 1er Cru "La Garenne" 2 8/10/2014 $130.00
2006 Herb Lamb "HL" Napa Valley Cabernet Sauvignon 2 8/10/2014 $150.00
2006 Elio Grasso "Casa Maté" Barolo Ginestra 2 8/10/2014 $202.76
2008 Duhart-Milon, Pauillac 3 8/10/2014 $201.00
1996 Dunn Howell Mountain Cabernet Sauvignon 2 8/10/2014 $320.00
2008 Domaine William Fèvre Chablis Horizontal 4 8/10/2014 $261.00
2009 Domaine Vincent Dauvissat Chablis Grand Cru "Les Preuses" 2 8/10/2014 $265.00
2009 Domaine Joseph Voillot Volnay 1er Cru "Champans" 3 8/10/2014 $165.00
2000 Domaine Leroy Latricières-Chambertin Grand Cru 1 8/10/2014 $1,176.00
2008 Clerc-Milon, Pauillac 2 8/10/2014 $92.00
2009 Cayuse "Cailloux Vineyard" Walla Walla Valley Syrah 3 8/10/2014 $310.00
2006 Marcassin "Three Sisters Vineyard" Sonoma Coast Chardonnay 1 8/10/2014 $180.00
2012 Aubert "Larry Hyde & Sons Vineyard" Carneros Chardonnay (1.5L) 1 8/10/2014 $255.00
2005 Canon-La-Gaffelière, St-Emilion 2 8/10/2014 $181.00
2006 Colgin "Tychson Hill Vineyard" Napa Valley Cabernet Sauvignon 1 8/10/2014 $226.00
2004 Palmer, Margaux 1 8/10/2014 $187.00
2006 Angélus, St-Emilion 2 8/10/2014 $503.00
2005 Kosta Browne Sonoma Coast Pinot Noir 1 8/10/2014 $76.00
2006 Pavie Macquin, St-Emilion 3 8/10/2014 $160.00
2000 Ducru-Beaucaillou, St-Julien 1 8/10/2014 $185.00
2006 Sine Qua Non "The Raven No. 6+7" Grenache 1 8/10/2014 $265.00
1999 Williams Selyem "Weir Vineyard" Yorkville Highlands Pinot Noir (1.5L) 1 8/10/2014 $105.00
2009 Saxum "Bone Rock" James Berry Vineyard Paso Robles Rhone Blend (1.5L) 1 8/10/2014 $179.00
1978 Diamond Creek "Volcanic Hill" Napa Valley Cabernet Sauvignon 1 8/9/2014 $420.00
2003 Domaine Jean-Louis Chave Hermitage 2 8/9/2014 $825.00
1982 Haut Brion, Pessac-Léognan 2 8/9/2014 $1,550.00
2007 Domaine Ramonet Bâtard-Montrachet Grand Cru 2 8/9/2014 $605.00
2009 Domaine Louis Jadot (Heritiers) Corton-Charlemagne Grand Cru 3 8/9/2014 $320.00
1996 Dominique Laurent Corton Hospices de Beaune 4 8/9/2014 $353.00
2005 Domaine Dupont-Tisserandot Charmes-Chambertin Grand Cru 3 8/9/2014 $360.00
2005 Domaine Groffier Bonnes Mares Grand Cru 2 8/9/2014 $626.00
2009 Domaine Eugénie Echézeaux Grand Cru 3 8/9/2014 $480.00
1994 Chateau Montelena "Estate" Napa Valley Cabernet Sauvignon 3 8/9/2014 $330.00
2011 Quilceda Creek Columbia Valley Cabernet Sauvignon 3 8/9/2014 $410.00
2010 Clos Saint-Jean "Combe des Fous" Châteauneuf-du-Pape 3 8/9/2014 $398.00
1999 Szepsy Tokaji Aszu 6 Puttonyos (500ml) 3 8/9/2014 $320.00
2007 Sine Qua Non "Pictures" Grenache 2 8/9/2014 $496.00
1995 Abreu "Madrona Ranch" Napa Valley Cabernet Sauvignon 3 8/9/2014 $574.00
1999 E. Guigal "La Turque" Côte-Rôtie 6 8/9/2014 $3,663.00
2002 Moet & Chandon "Dom Pérignon" Brut Champagne 3 8/9/2014 $500.00
1990 Latour, Pauillac 2 8/9/2014 $1,625.00
2007 Domaine du Vieux Telegraphe "La Crau" Châteauneuf-du-Pape 2 8/9/2014 $165.00
2006 Domaine Henri Gouges Nuits-St-Georges 1er Cru " Les Chenes Carteaux" 6 8/9/2014 $225.00
2007 Domaine Drouhin "Laurene" Dundee Hills Pinot Noir 3 8/9/2014 $180.00
1999 Domaine de Perdrix Echézeaux Grand Cru 2 8/9/2014 $145.00
2007 Domaine de la Mordorée "Reine des Bois" Châteauneuf-du-Pape 2 8/9/2014 $142.00
2005 Domaine des Baumard Quarts de Chaume 3 8/9/2014 $179.00
2008 Cos d'Estournel, St-Estèphe 2 8/9/2014 $220.00
2007 Clos des Papes Châteauneuf-du-Pape 3 8/9/2014 $460.00
2007 Domaine de la Janasse Châteauneuf-du-Pape 2 8/9/2014 $133.00
2008 Gazin, Pomerol 3 8/9/2014 $172.00
2005 Clerc-Milon, Pauillac 2 8/9/2014 $171.00
2006 Château Pontet-Canet 2 8/9/2014 $205.00
2006 Ducru-Beaucaillou, St-Julien Multi-Format Lot 2 8/9/2014 $245.00
2006 Cayuse "Cailloux Vineyard" Walla Walla Valley Syrah (OCB) 2 8/9/2014 $260.00
2006 Castello Banfi "Poggio alle Mura" Brunello di Montalcino 2 8/9/2014 $121.69
2005 Brane-Cantenac, Margaux 3 8/9/2014 $250.00
2006 Rauzan-Segla, Margaux 3 8/9/2014 $170.00
2009 Calon-Ségur, St-Estèphe 3 8/9/2014 $276.00
2009 Capbern Gasqueton, St-Estèphe (OWC) 12 8/9/2014 $300.00
2004 Bodegas Muga "Prado Enea" Gran Reserva Rioja 3 8/9/2014 $143.00
2007 Bouchard Pere et Fils Volnay 1er Cru "Les Caillerets - Ancienne Cuvée Carnot" 2 8/9/2014 $150.00
2006 Bonneau du Martray Corton-Charlemagne Grand Cru 3 8/9/2014 $325.00
2004 Alban "Reva" Edna Valley Syrah 2 8/9/2014 $160.00
2004 Alion (Vega Sicilia) Ribera del Duero 2 8/9/2014 $186.00
2009 Whitehall Lane Napa Valley Cabernet Sauvignon 3 8/9/2014 $96.00
2003 Marquis Philips "Integrity" Shiraz McLaren Vale South Australia (OCB) 3 8/9/2014 $175.00
2001 Château de Beaucastel Châteauneuf-du-Pape 2 8/9/2014 $160.00
2005 Marcassin "Three Sisters Vineyard" Sonoma Coast Chardonnay 1 8/9/2014 $165.00
2012 Aubert "Eastside Vineyard" Russian River Valley Chardonnay (1.5L) 1 8/9/2014 $311.00
2000 Colgin "Tychson Hill Vineyard" Napa Valley Cabernet Sauvignon 1 8/9/2014 $155.00
2006 Troplong-Mondot, St-Emilion 2 8/9/2014 $175.00
2003 Pavie Macquin, St-Emilion 3 8/9/2014 $245.00
1995 Araujo "Eisele Vineyard" Napa Valley Cabernet Sauvignon 1 8/9/2014 $226.00
2008 Kosta Browne Russian River Valley Pinot Noir 1 8/9/2014 $81.09
2005 Angélus, St-Emilion 1 8/9/2014 $295.00
2001 Kistler Russian River Valley Chardonnay Horizontal 2 8/9/2014 $105.00
1998 Mouton-Rothschild, Pauillac 1 8/9/2014 $400.00
1996 Joseph Phelps "Insignia" Napa Valley Proprietary Red 2 8/9/2014 $247.00
1997 Shafer "Hillside Select" Stags Leap District Cabernet Sauvignon 1 8/9/2014 $350.00
2008 Saxum "Heart Stone Vineyard" Paso Robles Rhône Blend 1 8/9/2014 $100.00
1993 Jordan Alexander Valley Cabernet Sauvignon 4 8/9/2014 $165.00
2006 Sine Qua Non "The Raven No. 5" Syrah 1 8/9/2014 $265.00
1998 & 2010 Château de Saint Cosme Gigondas Tasting Lot 7 8/8/2014 $375.00
2007 & 2008 Carlisle and Cobb Sonoma County Tasting Lot 7 8/8/2014 $335.00
2004 Philipponnat "Clos de Goisses" Brut Champagne 3 8/8/2014 $452.02
2007 Pierre Usseglio "Cuvée de Mon Aïeul" Châteauneuf-du-Pape 3 8/8/2014 $613.00
2010 Domaine de la Janasse "Vieilles Vignes" Châteauneuf-du-Pape 3 8/8/2014 $512.00
2010 Mas de Boislauzon "Cuvée du Quet" Châteauneuf-du-Pape 3 8/8/2014 $422.00
1987 Beringer "Chabot" Napa Valley Cabernet Sauvignon (9L) (OWC) 1 8/8/2014 $500.00
1989 Château de Beaucastel Châteauneuf-du-Pape 2 8/8/2014 $453.00
2005 Vincent Girardin Chambertin-Clos de Bèze Grand Cru 2 8/8/2014 $360.00
1994 Caymus "Special Selection" Napa Valley Cabernet Sauvignon 2 8/8/2014 $381.00
2001 Chateau Montelena "Estate" Napa Valley Cabernet Sauvignon 4 8/8/2014 $320.00
2006 Domaine Marquis de Laguiche (Joseph Drouhin) Montrachet Grand Cru 3 8/8/2014 $1,155.00
2007 DRC Domaine de la Romanée-Conti Le Montrachet Grand Cru 1 8/8/2014 $3,145.00
2010 Sine Qua Non "Five Shooter" Central Coast Syrah 2 8/8/2014 $471.50
2003 Araujo "Eisele Vineyard" Napa Valley Syrah 4 8/8/2014 $312.00
1985 Léoville-Barton, St-Julien 6 8/8/2014 $655.00
1999 Ausone, St-Emilion 2 8/8/2014 $803.00
2005 Domaine du Clos de Tart Clos de Tart Grand Cru 3 8/8/2014 $1,120.00
1985 Carbonnieux & Grand-Puy Ducasse Tasting Set 2 8/8/2014 $95.00
1984 Heitz Cellar "Bella Oaks" Napa Valley Cabernet Sauvignon 2 8/8/2014 $125.00
2009 Swanson "Instant Napa" Napa Valley Cabernet Sauvignon 4 8/8/2014 $131.00
1990 Zind Humbrecht Tasting Lot 3 8/8/2014 $227.00
2005 Domaine Groffier Chambertin-Clos de Bèze Grand Cru 1 8/8/2014 $312.00
2005 Domaine Henri Perrot-Minot Chapelle-Chambertin Grand Cru "Vieilles Vignes" 1 8/8/2014 $336.00
2006 Doisy-Daëne "LExtravagant" Sauternes (375ml) (OWC) 1 8/8/2014 $102.00
2000 Tommaso Bussola "TB" Recioto della Valpolicella (500ml) 3 8/8/2014 $150.00
1997 Doisy-Daëne "LExtravagant" Sauternes (375ml) (OWC) 1 8/8/2014 $182.00
2005 Alex Gambal Vosne-Romanée Vieilles Vignes 1 8/8/2014 $74.00
1998 Certan de May, Pomerol 1 8/8/2014 $64.00
2002 Domaine Weinbach "Cuvée Laurence" Gewürztraminer (375ml) 2 8/8/2014 $73.00
1990 Pierre Bouree Bonnes Mares 1 8/8/2014 $204.00
1994 Corison & Quintessa Tasting Set 2 8/8/2014 $147.80
1984 Louis Carillion et Fils Bienvenues-Bâtard-Montrachet Grand Cru 1 8/8/2014 $215.00
2002 Marquis Philips "Integrity" Shiraz McLaren Vale South Australia (OCB) 2 8/8/2014 $275.00
1996 E. Guigal "La Landonne" Côte-Rôtie 1 8/8/2014 $245.00
2009 Domaine A.-F. Gros Richebourg Grand Cru 1 8/8/2014 $354.00
2007 Marcassin "Blue Slide Ridge" Sonoma Coast Pinot Noir 1 8/8/2014 $176.00
1994 & 1999 Cos d'Estournel, St-Estèphe Tasting Lot 2 8/8/2014 $176.50
2010 Quilceda Creek Columbia Valley Cabernet Sauvignon 1 8/8/2014 $160.00
1990 Moët & Chandon "Cuvée Dom Pérignon" Brut Champagne 1 8/8/2014 $231.01
1986 Clerc-Milon, Pauillac 2 8/8/2014 $177.00
2012 Aubert "CIX" Sonoma Coast Chardonnay (1.5L) 1 8/8/2014 $347.00
2003 Troplong Mondot, St-Emilion 2 8/8/2014 $138.00
2001 Henri Bonneau "Réserve des Célestins" Châteauneuf-du-Pape 1 8/8/2014 $375.00
2005 Colgin "IX Estate" Napa Valley Syrah 1 8/8/2014 $131.56
2004 Smith-Haut-Lafitte, Pessac-Léognan 2 8/8/2014 $150.00
2006 Kosta Browne Russian River Valley Pinot Noir 1 8/8/2014 $66.00
2005 Branaire-Ducru, St-Julien 1 8/8/2014 $88.00
2000 & 2005 Pavie Macquin, St-Emilion Tasting Lot 2 8/8/2014 $271.00
2005 Calon-Ségur, St-Estèphe 1 8/8/2014 $106.00
2002 Domaine Jean Boillot Puligny Montrachet 1er Cru "Les Pucelles" 3 8/8/2014 $306.00
1987 Mouton-Rothschild, Pauillac 1 8/8/2014 $400.00
2003 Angélus, St-Emilion 1 8/8/2014 $200.00
2001 Shafer "Sunspot" Napa Valley Cabernet Sauvignon (1.5L) 1 8/8/2014 $340.01
2001 Domaine Thierry-Allemand "Reynard" Cornas 2 8/8/2014 $505.00
2005 Saxum "Broken Stones" Paso Robles Rhône Blend 2 8/8/2014 $166.00
1999 Williams Selyem Mendocino County Pinot Noir (1.5L) 1 8/8/2014 $100.00
1997 Joseph Phelps "Insignia" Napa Valley Proprietary Red 2 8/8/2014 $530.03
2006 Sine Qua Non "The Raven No. 4" Syrah 1 8/8/2014 $246.00
2010 Domaine Giraud "Grenaches de Pierre" Châteauneuf-du-Pape 3 8/7/2014 $400.00
1998 J.L. Chave Hermitage Rouge 2 8/7/2014 $458.00
2010 Domaine du Clos du Caillou "Réserve les Clos du Caillou" Châteauneuf-du-Pape 3 8/7/2014 $426.00
2010 Domaine de Saint Préfert "Collection Charles Giraud" Châteauneuf-du-Pape 3 8/7/2014 $400.00
2010 Clos des Papes Châteauneuf-du-Pape 3 8/7/2014 $412.00
2010 Domaine de la Janasse "Chaupin" Châteauneuf-du-Pape 3 8/7/2014 $325.00
2004 J.-F. Coche-Dury Corton-Charlemagne Grand Cru 3 8/7/2014 $5,950.00
1984-1986 Caymus "Special Selection" Napa Valley Cabernet Sauvignon Vertical 3 8/7/2014 $458.00
2005 M. Chapoutier "L'Ermite" Ermitage Rouge 3 8/7/2014 $525.00
2010 Sine Qua Non "Five Shooter" Central Coast Grenache 2 8/7/2014 $460.00
2002 Araujo "Eisele Vineyard" Napa Valley Cabernet Sauvignon 2 8/7/2014 $610.00
2003 Léoville-Poyferré, St-Julien 3 8/7/2014 $470.00
1990 Lafite-Rothschild, Pauillac 2 8/7/2014 $1,420.00
2004 Latour, Pauillac (OWC) 12 8/7/2014 $5,301.00
2000 Branaire-Ducru, St-Julien 4 8/7/2014 $290.00
1997 Chateau Montelena "Estate" Napa Valley Cabernet Sauvignon 6 8/7/2014 $1,245.00
1990 Haut-Brion, Pessac-Léognan 1 8/7/2014 $678.00
2002 Marcassin "Three Sisters Vineyard" Sonoma Coast Chardonnay 1 8/7/2014 $145.00
2003 Quilceda Creek Washington Cabernet Sauvignon 1 8/7/2014 $230.00
1972-1974 Charles Krug "Vintage Selection" Napa Valley Cabernet Sauvignon Vertical 3 8/7/2014 $171.00
2003 Ridge Vineyards "Lytton Estate" Dry Creek Valley Late Harvest Zinfandel 1 8/7/2014 $46.00
2001 Marquis Philips "Integrity" Shiraz McLaren Vale (OCB) 2 8/7/2014 $275.00
2012 Aubert "CIX" Sonoma Coast Chardonnay 1 8/7/2014 $160.00
1999 Bruno Giacosa "Le Rocche del Falletto di Serralunga" Barolo 1 8/7/2014 $232.00
1998 Pierre Usseglio "Mon Aïeul" Châteauneuf-du-Pape 1 8/7/2014 $120.00
1999 Domaine Bruno Clavelier Vosne-Romanée 1er Cru "Les Beaux Monts" Vieilles Vignes 2 8/7/2014 $260.01
1995 Lynch-Bages, Pauillac 1 8/7/2014 $115.00
1989 Pichon-Baron, Pauillac 1 8/7/2014 $215.00
1981, 1997 & 1999 Clerc-Milon, Pauillac Tasting Lot 3 8/7/2014 $130.00
2000 Château de Beaucastel Châteauneuf-du-Pape 2 8/7/2014 $155.00
2005 Les Cailloux "Cuvée Centenaire" Châteauneuf-du-Pape 1 8/7/2014 $121.00
1999 Henri Bonneau "Réserve de Célestins" Châteauneuf-du-Pape 1 8/7/2014 $275.00
2003 Valandraud, St-Emilion 2 8/7/2014 $305.00
2007 Domaine Giraud "Grenaches de Pierre" Châteauneuf-du-Pape 1 8/7/2014 $81.00
2009 Clos Saint-Jean "Deus Ex Machina" Châteauneuf-du-Pape 1 8/7/2014 $170.00
1984 Conn Creek Napa Valley Cabernet Sauvignon (5L) (OWC) 1 8/7/2014 $295.00
2004 Trotanoy, Pomerol 2 8/7/2014 $200.00
2009 Schrader "Beckstoffer To Kalon, T6" Napa Valley Cabernet Sauvignon 1 8/7/2014 $261.00
2008 Abreu "Cappella" Napa Valley Bordeaux Blend 1 8/7/2014 $275.00
1995 & 2001 Troplong-Mondot, St-Emilion Tasting Lot 2 8/7/2014 $131.00
2009 Blankiet "Paradise Hills Vineyard" Napa Valley Proprietary Red 1 8/7/2014 $150.01
2004 Colgin "Herb Lamb Vineyard" Napa Valley Cabernet Sauvignon 1 8/7/2014 $195.00
2006 Smith-Haut-Lafitte Rouge, Pessac-Léognan 2 8/7/2014 $123.00
1996 Moet & Chandon "Dom Pérignon" Brut Champagne (Gift Box) 1 8/7/2014 $210.00
2005 Kosta Browne Russian River Valley Pinot Noir 1 8/7/2014 $75.00
2003 Pichon-Lalande, Pauillac 1 8/7/2014 $125.00
1995 Pavie Macquin, St-Emilion 2 8/7/2014 $121.02
2006 Montrose, St-Estèphe 2 8/7/2014 $150.00
2000 Cos d'Estournel, St-Estèphe 1 8/7/2014 $175.00
2000 Angélus, St-Emilion 1 8/7/2014 $330.00
2008, 2010-2011 Rivers-Marie "Summa Vineyard" Sonoma Coast Pinot Noir Tasting Lot 3 8/7/2014 $241.20
1985 Mouton-Rothschild, Pauillac 1 8/7/2014 $330.00
2005 Henri Boillot Puligny-Montrachet 1er Cru "Clos de la Mouchère" 2 8/7/2014 $216.11
2009-2010 Saxum "James Berry Vineyard" Paso Robles Rhône Blend Vertical 2 8/7/2014 $255.00
1994 Joseph Phelps "Insignia" Napa Valley Proprietary Red 2 8/7/2014 $452.00
2001 Williams Selyem Central Coast Pinot Noir (1.5L) 1 8/7/2014 $100.00
2003 Shafer "Hillside Select" Stags Leap District Cabernet Sauvignon (1.5L) (OWC) 1 8/7/2014 $470.00
2006 Sine Qua Non "The Raven No. 3" Syrah 1 8/7/2014 $252.00
2007 Château de Saint Cosme "Hominis Fidis" Gigondas 2 8/6/2014 $576.00
2007 Clos du Mont Olivet "La Cuvée du Papet" Châteauneuf-du-Pape 3 8/6/2014 $343.00
2006 Clos des Papes Châteauneuf-du-Pape 3 8/6/2014 $382.00
1974 Sebastiani "Proprietor's Reserve" Northern California Cabernet Sauvignon 5 8/6/2014 $322.00
2011 Vine Hill Ranch Napa Valley Cabernet Sauvignon 3 8/6/2014 $450.00
1985-1987 Chateau Montelena "Estate" Napa Valley Cabernet Sauvignon Vertical 3 8/6/2014 $450.00
1996 Robert Mondavi "Reserve" Napa Valley Cabernet Sauvignon (OWC) 6 8/6/2014 $490.00
1969 Louis Martini Napa Valley Cabernet Sauvignon 6 8/6/2014 $372.00
2011 Sine Qua Non "Dark Blossom" Syrah 2 8/6/2014 $575.00
1997 Araujo "Eisele Vineyard" Napa Valley Cabernet Sauvignon 3 8/6/2014 $561.00
2006 Marcassin "Blue Slide Ridge" Sonoma Coast Pinot Noir 3 8/6/2014 $622.00
2009 Cayuse "God Only Knows" Walla Walla Valley Grenache (OCB) 3 8/6/2014 $310.00
2000 Léoville-Poyferré, St-Julien 3 8/6/2014 $410.00
2007 Château de Beaucastel Châteauneuf-du-Pape 5 8/6/2014 $480.00
2004 Angélus, St-Emilion 3 8/6/2014 $627.00
1982 Cos d'Estournel, St-Estèphe 6 8/6/2014 $1,850.00
1995 Pontet-Canet, Pauillac (OWC) 4 8/6/2014 $340.00
2004 Clos Saint-Jean "Deus Ex Machina" Châteauneuf du Pape 1 8/6/2014 $100.00
2004 Silver Oak Napa Valley Cabernet Sauvignon (1.5L) 1 8/6/2014 $160.00
2000 Troplong Mondot, St-Emilion (OWC) 2 8/6/2014 $265.00
2010 Paul Hobbs "Hyde Vineyard" Carneros Cabernet Sauvignon 1 8/6/2014 $125.00
2005 Smith-Haut-Lafitte Rouge, Pessac-Léognan 2 8/6/2014 $195.00
2010 Seaver Vineyards "GTS" Diamond Mountain District Cabernet Sauvignon 1 8/6/2014 $111.00
2009 Jonata "El Desafio de Jonata" Santa Ynez Valley Cabernet Sauvignon 1 8/6/2014 $88.00
2005 Rol Valentin, St-Emilion 3 8/6/2014 $245.01
2008 Hundred Acre "Fortunate Son" Napa Valley Cabernet Sauvignon 1 8/6/2014 $110.00
2010 Harlan "The Maiden" Napa Valley Bordeaux Blend 1 8/6/2014 $190.00
2001 & 2009 Rieussec, Sauternes Tasting Lot 2 8/6/2014 $237.00
2005 Rauzan-Ségla, Margaux 2 8/6/2014 $221.00
2010 Gandona Napa Valley Cabernet Sauvignon 1 8/6/2014 $131.00
2011 Carter Cellars "The O.G.--Beckstoffer To Kalon" Napa Valley Cabernet Sauvignon 1 8/6/2014 $100.01
1998 Moet & Chandon "Cuvée Dom Pérignon" Brut Champagne (Gift Box) 1 8/6/2014 $138.00
2007 Blankiet "Paradise Hills Vineyard" Napa Valley Bordeaux Blend 1 8/6/2014 $160.00
1990 Groth "Reserve" Napa Valley Cabernet Sauvignon 1 8/6/2014 $80.00
2002 Pichon-Lalande, Pauillac 2 8/6/2014 $210.00
2000 Colgin "Herb Lamb Vineyard" Napa Valley Cabernet Sauvignon 1 8/6/2014 $185.00
2005 & 2008 Pichon-Baron, Pauillac Tasting Lot 2 8/6/2014 $223.00
1989 Caymus "Special Selection" Napa Valley Cabernet Sauvignon 1 8/6/2014 $120.01
2005 Bellevue, St-Emilion 2 8/6/2014 $138.00
1997 Abreu "Madrona Ranch" Napa Valley Cabernet Sauvignon 1 8/6/2014 $605.00
2004 Montrose, St-Estèphe 2 8/6/2014 $173.00
2007 Taylor Fladgate Vintage Port 1 8/6/2014 $93.00
2003 Pavie, St-Emilion 1 8/6/2014 $221.00
2006 M. Chapoutier "La Mordorée" Côte-Rôtie 1 8/6/2014 $119.14
2007 Kosta Browne "Koplen Vineyard" Russian River Valley Pinot Noir 1 8/6/2014 $90.00
2002 Léoville-Las-Cases, St-Julien 2 8/6/2014 $271.01
1995 Ducru-Beaucaillou, St-Julien 1 8/6/2014 $190.00
2000 Calon-Ségur, St-Estèphe 2 8/6/2014 $215.00
2005 Boyd-Cantenac, Margaux 1 8/6/2014 $51.00
1983 Mouton-Rothschild, Pauillac 1 8/6/2014 $340.00
2000 Léoville-Barton, St-Julien 1 8/6/2014 $165.00
2010-2012 Rivers-Marie "Silver Eagle Vineyard" Sonoma Coast Pinot Noir Vertical 3 8/6/2014 $215.00
1992 Joseph Phelps "Insignia" Napa Valley Proprietary Red 3 8/6/2014 $600.00
2002 Kistler Sonoma Coast Pinot Noir 3 8/6/2014 $170.00
2008 Saxum "Broken Stones" Paso Robles Syrah 2 8/6/2014 $180.00
2004 Shafer "Hillside Select" Stags Leap District Cabernet Sauvignon 1 8/6/2014 $220.00
1999 Sine Qua Non "Ox" Pinot Noir 1 8/6/2014 $415.00
1997 Dunn Howell Mountain Cabernet Sauvignon 3 8/5/2014 $420.00
1969 J. Pedroncelli "Private Stock" Sonoma County Cabernet Sauvignon 6 8/5/2014 $400.00
2003 Colgin Napa Valley Horizontal 3 8/5/2014 $460.00
1998 St-Emilion Tasting Lot 3 8/5/2014 $355.00
2001 Bond "Matriarch" Napa Valley Bordeaux Blend 3 8/5/2014 $305.00
1996 Louis Jadot Bonnes Mares Grand Cru 2 8/5/2014 $412.01
2011 Sine Qua Non "Dark Blossom" Grenache 2 8/5/2014 $695.00
2009 Domaine Dauvissat-Camus (René & Vincent) Chablis 1er Cru "Les Clos" 3 8/5/2014 $400.00
2004 Gaja Barbaresco 3 8/5/2014 $531.00
2006 Fontodi Flaccianello della Pieve Colli della Toscana 4 8/5/2014 $578.00
2006 Château de Beaucastel Châteauneuf-du-Pape 6 8/5/2014 $450.00
2007 Cayuse "Cailloux Vineyard" Walla Walla Valley Syrah (OCB) 3 8/5/2014 $371.66
2003 Cos d'Estournel, St-Estèphe 3 8/5/2014 $530.00
2009 DRC Domaine de la Romanée-Conti Échézeaux Grand Cru 3 8/5/2014 $2,350.00
2006 Trotanoy, Pomerol 3 8/5/2014 $390.00
2008 Harlan Estate Napa Valley Bordeaux Blend (OWC) 1 8/5/2014 $515.00
1972 Heitz "Martha's Vineyard" Napa Valley Cabernet Sauvignon 4 8/5/2014 $1,386.00
2007 Marcassin "Marcassin Vineyard" Sonoma Coast Pinot Noir 3 8/5/2014 $905.00
1993 Mouton-Rothschild, Pauillac (Blank Label) 3 8/5/2014 $765.00
2002 Chateau Montelena "Estate" Napa Valley Cabernet Sauvignon 1 8/5/2014 $106.00
1995 & 2000 Rauzan-Segla, Margaux Tasting Lot 2 8/5/2014 $241.00
1980 Caymus "Special Selection" Napa Valley Cabernet Sauvignon 1 8/5/2014 $180.00
1998 Bryant Family Napa Valley Cabernet Sauvignon 1 8/5/2014 $180.00
2002 Blankiet "Paradise Hills Vineyard" Napa Valley Cabernet Sauvignon 1 8/5/2014 $201.00
2000 Pontet-Canet, Pauillac 2 8/5/2014 $285.00
2004 Pichon-Lalande, Pauillac 2 8/5/2014 $208.00
1994 Beaulieu Vineyard "Georges de Latour" Private Reserve Napa Valley Cabernet Sauvignon 1 8/5/2014 $96.24
1993 Araujo "Eisele Vineyard" Napa Valley Cabernet Sauvignon 1 8/5/2014 $230.00
2000 Vega Sicilia "Unico" Ribera del Duero 1 8/5/2014 $298.00
1993 Abreu "Madrona Ranch" Napa Valley Cabernet Sauvignon 1 8/5/2014 $210.00
2003 Pichon-Baron, Pauillac 2 8/5/2014 $255.00
2003 Taylor Fladgate Vintage Port 1 8/5/2014 $155.00
1994 Robert Mondavi "Reserve" Napa Valley Cabernet Sauvignon 1 8/5/2014 $121.00
2007 Pape-Clément, Pessac-Léognan 2 8/5/2014 $140.01
1990 Rieussec, Sauternes 1 8/5/2014 $87.00
2005 Pierre Usseglio "Mon Aieul" Châteauneuf-du-Pape 1 8/5/2014 $69.00
2005 & 2009 Marojallia, Margaux Tasting Lot 4 8/5/2014 $161.00
2009-2010 Lancaster Alexander Valley Bordeaux Blend Tasting Lot (OWC) 5 8/5/2014 $205.00
2003 Pavie Decesse, St-Emilion 1 8/5/2014 $110.00
1994 Philip Togni Napa Valley Cabernet Sauvignon 1 8/5/2014 $135.00
2005 Malescot-St-Exupéry, Margaux 2 8/5/2014 $233.00
2003 La Mondotte, St-Emilion 1 8/5/2014 $140.00
2003 Paul Jaboulet Ainé "La Chapelle" Hermitage 1 8/5/2014 $152.00
2005 Montrose, St-Estèphe 1 8/5/2014 $140.00
2006 Léoville-Las Cases, St-Julien 2 8/5/2014 $310.00
1995 Léoville-Poyferre, St-Julien 1 8/5/2014 $95.00
Assorted Léoville-Barton, St-Julien Tasting Lot 5 8/5/2014 $487.55
2006 M. Chapoutier "Le Pavillon" Ermitage Rouge 1 8/5/2014 $146.00
2007 Kosta Browne "Keefer Ranch" Russian River Valley Pinot Noir 1 8/5/2014 $98.00
1999 l'Eglise Clinet, Pomerol 2 8/5/2014 $305.00
2006 Ducru-Beaucaillou, St-Julien (OWC) 2 8/5/2014 $225.00
2003 Haut-Brion, Pessac-Léognan 1 8/5/2014 $412.00
2008 Angélus, St-Emilion 1 8/5/2014 $190.00
2009 Lynch-Bages, Pauillac 1 8/5/2014 $160.98
2009 Smith Haut Lafitte Rouge, Pessac-Léognan 1 8/5/2014 $200.00
2004-2005 Sea Smoke "Southing" Sta. Rita Hills Pinot Noir Vertical 2 8/5/2014 $165.00
2010 Saxum "James Berry Vineyard" Paso Robles Rhône Blend (1.5L) 2 8/5/2014 $461.50
2007 Joseph Phelps "Insignia" Napa Valley Bordeaux Blend 2 8/5/2014 $422.02
2001 Kistler Sonoma Coast Pinot Noir 3 8/5/2014 $195.00
2003 Sine Qua Non "Li'l E" Grenache 1 8/5/2014 $410.00
2002 Williams-Selyem "Rochioli Riverblock" Russian River Pinot Noir (1.5L) 1 8/5/2014 $165.01
2007 Shafer "Hillside Select" Stags Leap District Cabernet Sauvignon 1 8/5/2014 $245.00
1998 Domaine Thierry Allemand "Reynard" Cornas 2 8/5/2014 $555.00
2005 Araujo "Eisele Vineyard" Napa Valley Cabernet Sauvignon 2 8/4/2014 $567.00
2000 Beychevelle, St-Julien 3 8/4/2014 $320.00
2006 Cayuse "Armada Vineyard" Walla Walla Valley Syrah 3 8/4/2014 $465.00
1995 Trotanoy, Pomerol 2 8/4/2014 $421.00
2005 Troplong Mondot, St-Emilion 2 8/4/2014 $392.00
2005, 2006 & 2008 Pontet-Canet, Pauillac Tasting Lot 3 8/4/2014 $300.00
2001 Domaine Leroy Vosne-Romanée 1er Cru "Les Beaux-Monts" 1 8/4/2014 $725.00
2005 Domaine Marquis de Laguiche (Joseph Drouhin) Montrachet Grand Cru 1 8/4/2014 $400.00
1998 St-Emilion Tasting Lot 3 8/4/2014 $400.00
2007 Marcassin "Marcassin Vineyard" Sonoma Coast Chardonnay 1 8/4/2014 $270.00
1982 Cheval Blanc, St-Emilion 3 8/4/2014 $2,100.00
1999 Silver Oak Alexander Valley Cabernet Sauvignon (3L) (OWC) 1 8/4/2014 $336.00
2006 DRC Domaine de la Romanée Conti La Tâche Grand Cru (OWC) 6 8/4/2014 $11,300.00
2006 Larkmead "The Lark" Napa Valley Cabernet Sauvignon 6 8/4/2014 $810.00
1997-2002 Dalla Valle "Maya" Napa Valley Proprietary Red Vertical 6 8/4/2014 $1,681.00
2007 Sine Qua Non "Labels" Syrah 3 8/4/2014 $960.00
2005 L'Evangile, Pomerol 1 8/4/2014 $230.00
2005 Magrez Fombrauge, St-Emilion 2 8/4/2014 $181.00
2002 Louis Jadot Bonnes Mares Grand Cru 1 8/4/2014 $280.00
2006 La Conseillante, Pomerol 1 8/4/2014 $146.00
2004 Léoville-Poyferré, St-Julien 2 8/4/2014 $155.00
2007 Kosta Browne "Amber Ridge" Russian River Valley Pinot Noir 1 8/4/2014 $93.00
2005 J. Cacheux Echezeaux Grand Cru 1 8/4/2014 $117.00
2008 Le Gay, Pomerol 2 8/4/2014 $175.00
2004 Jean-Louis Chave Hermitage Rouge 1 8/4/2014 $180.00
2005 Groth "Reserve" Oakville Cabernet Sauvignon 1 8/4/2014 $110.00
2005 Le Gay, Pomerol 2 8/4/2014 $280.00
2007 Graham's Vintage Port 1 8/4/2014 $95.00
1963 Fonseca Vintage Port 1 8/4/2014 $335.00
2004 Gaja "Sorì San Lorenzo" Nebbiolo Langhe 1 8/4/2014 $285.00
2006 Latour à Pomerol, Pomerol 2 8/4/2014 $125.00
2003 Emilio Moro "Malleolus de Sanchomartin" Ribera del Duero 1 8/4/2014 $111.00
2000 Latour à Pomerol, Pomerol 2 8/4/2014 $185.00
2006 E. Guigal "La Turque" Côte-Rôtie 1 8/4/2014 $255.00
2005 Lascombes, Margaux 2 8/4/2014 $183.00
2005 Dupont-Tisserandot Mazis-Chambertin Grand Cru 1 8/4/2014 $130.00
2003 d'Yquem, Sauternes (375ml) 1 8/4/2014 $142.00
1997 Dominus Napa Valley Proprietary Red 1 8/4/2014 $155.00
2005 La Tour Haut-Brion, Pessac-Léognan 2 8/4/2014 $120.00
1994 Dunn Howell Mountain Cabernet Sauvignon 1 8/4/2014 $145.00
2005-2006 Haut-Bailly, Pessac-Léognan Vertical 2 8/4/2014 $163.00
1995 Angélus, St-Emilion 1 8/4/2014 $285.00
2008 Domaine Ponsot Clos de la Roche Grand Cru "Vieilles Vignes" 1 8/4/2014 $285.00
1979 Mouton-Rothschild, Pauillac 1 8/4/2014 $325.00
2005 Ducru-Beaucaillou, St-Julien 3 8/4/2014 $555.00
2000 Pichon-Baron, Pauillac 1 8/4/2014 $176.00
1995 Léoville-Las-Cases, St-Julien 1 8/4/2014 $195.00
2002 Jean Boillot & Fils Puligny-Montrachet 1er Cru "Clos La Mouchere" 3 8/4/2014 $320.00
2009 Clinet, Pomerol 1 8/4/2014 $250.02
2005 Quilceda Creek Columbia Valley Cabernet Sauvignon 1 8/4/2014 $235.00
2010 Kistler Chardonnay Tasting Set 3 8/4/2014 $266.02
1998, 2001 & 2003 Clerc-Milon, Pauillac Tasting Lot 3 8/4/2014 $145.00
2009 Saxum "James Berry Vineyard" Paso Robles Rhône Blend (1.5L) 1 8/4/2014 $296.00
2005 Palmer, Margaux 2 8/4/2014 $490.00
2003 Joseph Phelps "Insignia" Napa Valley Bordeaux Blend 3 8/4/2014 $472.02
2005 Sine Qua Non "Atlantis Fe203-2a" Grenache 1 8/4/2014 $265.00
2006 Shafer "Hillside Select" Stags Leap District Cabernet Sauvignon 1 8/4/2014 $206.01
2007 Williams-Selyem Sonoma County Pinot Noir 8 8/4/2014 $370.00
2005 Pape Clément, Pessac-Léognan 2 8/3/2014 $361.00
2002 Domaine Marquis de Laguiche (Joseph Drouhin) Montrachet Grand Cru 1 8/3/2014 $443.00
2004 Palmer, Margaux 2 8/3/2014 $330.00
2000 Les Forts de Latour, Pauillac 2 8/3/2014 $360.00
2001 Jean Grivot Richebourg Grand Cru 1 8/3/2014 $460.01
2000 Domaine Leroy Latricières-Chambertin Grand Cru 1 8/3/2014 $1,400.00
1990 Jean Gros Clos De Vougeot 1 8/3/2014 $270.00
1998, 2001, & 2004 Léoville-Las Cases, St-Julien Tasting Lot 3 8/3/2014 $466.01
1988 Krug Brut Champagne 1 8/3/2014 $360.00
2001, 2004, & 2008 l'Eglise-Clinet, Pomerol Tasting Lot 3 8/3/2014 $505.00
1964 Cheval Blanc, St-Emilion 1 8/3/2014 $555.21
1992 Ramonet Bâtard-Montrachet Grand Cru 1 8/3/2014 $660.00
1998 Silver Oak Alexander Valley Cabernet Sauvignon (6L) 1 8/3/2014 $560.00
2001 Cos d'Estournel, St-Estèphe 5 8/3/2014 $602.00
2009 Harlan Estate Napa Valley Bordeaux Blend (OWC) 1 8/3/2014 $490.00
2005 DRC Domaine de la Romanée-Conti Le Montrachet Grand Cru 1 8/3/2014 $4,168.00
2006 Marcassin "Marcassin Vineyard" Sonoma Coast Pinot Noir 3 8/3/2014 $685.00
1982 Mouton-Rothschild, Pauillac 3 8/3/2014 $3,500.00
2008 Larcis Ducasse, St-Emilion 2 8/3/2014 $87.00
1994 Dow's Vintage Port 1 8/3/2014 $102.00
1990 Dunn Howell Mountain Cabernet Sauvignon 1 8/3/2014 $155.00
1994 Dominus Estate Napa Valley Proprietary Red 1 8/3/2014 $235.00
2008 Sine Qua Non "Kolibri" Proprietary White 1 8/3/2014 $115.00
2001 Ojai "Roll Ranch Vineyard" Syrah 3 8/3/2014 $115.00
2005 Dominique Laurent Clos de la Roche Grand Cru 1 8/3/2014 $160.00
2009 Domaine Vincent Dauvissat Chablis Grand Cru "Les Clos" 1 8/3/2014 $170.00
2003 Domaine Saint-Martin Bonnes Mares Grand Cru 1 8/3/2014 $121.02
2004 Domaine Ponsot Chapelle-Chambertin 1 8/3/2014 $186.00
2001 Henry's Drive Shiraz Padthaway South Australia 4 8/3/2014 $105.00
2005 La Fleur Morange, St-Emilion 2 8/3/2014 $201.00
1999 Domaine Jean Grivot Clos de Vougeot Grand Cru 1 8/3/2014 $130.01
2006 Domaine Joseph Faiveley Mazis-Chambertin Grand Cru 1 8/3/2014 $115.00
2003 Domaine Gros Frere & Soeur Clos Vougeot "Musigni" 1 8/3/2014 $96.00
2005 La Croix St. Georges, Pomerol 3 8/3/2014 $245.00
2005 Caronne Ste-Gemme, Haut-Médoc (6L) 1 8/3/2014 $250.00
2000 Haut-Bailly, Pessac-Léognan 2 8/3/2014 $135.00
2005 Domaine de Chevalier Blanc, Pessac-Léognan 1 8/3/2014 $108.00
2008 Clos Fourtet, St-Emilion 1 8/3/2014 $57.00
2003 Casanova di Neri "Tenuta Nuova" Brunello di Montalcino 1 8/3/2014 $57.00
2000 & 2003 Ducru-Beaucaillou, St-Julien Tasting Lot 2 8/3/2014 $295.00
2005 Clos des Papes Châteauneuf-du-Pape 1 8/3/2014 $131.00
1990 Bollinger R.D. Extra Brut Champagne 1 8/3/2014 $315.00
2004-2006 Domaine de Chevalier Rouge, Pessac-Léognan Vertical 5 8/3/2014 $253.48
1994 Angélus, St-Emilion 1 8/3/2014 $155.00
2005 Canon-La-Gaffelière, St-Emilion 2 8/3/2014 $176.06
2000 Moët & Chandon "Dom Pérignon" Brut Champagne 1 8/3/2014 $135.00
2003 La Mission Haut-Brion, Pessac-Léognan 1 8/3/2014 $185.00
2002 Henri Boillot Puligny-Montrachet 3 8/3/2014 $126.00
2000 Gruaud Larose, St-Julien 1 8/3/2014 $115.00
1990 Giuseppe Quintarelli "Amabile del Cere" Bianco Veneto (375ml) 1 8/3/2014 $222.00
2010 Saxum Paso Robles Red Tasting Lot 2 8/3/2014 $205.00
1995 Joseph Phelps "Insignia" Napa Valley Bordeaux Blend 2 8/3/2014 $421.00
2000-2004 Dalla Valle Napa Valley Cabernet Sauvignon Vertical 5 8/3/2014 $375.00
2000 Pichon-Lalande, Pauillac (1.5L) 1 8/3/2014 $411.00
2002 Shafer "Hillside Select" Stags Leap District Cabernet Sauvignon 1 8/3/2014 $370.00
2005 Sine Qua Non "Atlantis fe203-1b" Syrah 1 8/3/2014 $450.00
2007 Williams-Selyem Sonoma Coast Pinot Noir 8 8/3/2014 $470.00
2006 Quilceda Creek Columbia Valley Cabernet Sauvignon 1 8/3/2014 $152.00
Assorted Pape Clément, Pessac-Léognan Tasting Lot 4 8/2/2014 $447.00
1998 Henri Bonneau "Réserve de Célestins" Châteauneuf-du-Pape 1 8/2/2014 $320.00
1990 Montrose, St-Estèphe 1 8/2/2014 $501.00
2006 Schrader "Beckstoffer To Kalon, RBS" Napa Valley Cabernet Sauvignon 1 8/2/2014 $335.00
2009 Hundred Acre "Kayli Morgan" Napa Valley Cabernet Sauvignon (1.5L) (OWC) 1 8/2/2014 $395.00
1995, 2000 & 2002 Palmer, Margaux Tasting Lot 3 8/2/2014 $600.01
2005 Léoville Las Cases, St-Julien 2 8/2/2014 $525.00
1974 Heitz Cellar "Martha's Vineyard" Napa Valley Cabernet Sauvignon 1 8/2/2014 $1,050.00
2009 Domaine Eugénie Grands Echézeaux Grand Cru 3 8/2/2014 $730.00
1995 Vega Sicilia "Unico" Ribera del Duero 1 8/2/2014 $340.00
1990 Latour, Pauillac 1 8/2/2014 $690.00
2009 Lafite-Rothschild, Pauillac 1 8/2/2014 $915.00
2001 Château de Beaucastel Châteauneuf-du-Pape (OWC) 12 8/2/2014 $990.01
2005 Pavie, St-Emilion (OWC) 12 8/2/2014 $3,312.00
2002 Mouton-Rothschild, Pauillac 3 8/2/2014 $1,150.00
2007 Domaine de Marcoux "Vieilles Vignes" Châteauneuf-du-Pape 1 8/2/2014 $145.00
2005 Domaine Faiveley Clos de Vougeot Grand Cru 1 8/2/2014 $143.00
2005-2006 Grand-Puy-Lacoste, Pauilliac Vertical 4 8/2/2014 $306.00
2010 Gazin, Pomerol 2 8/2/2014 $207.00
2005 Cos d'Estournel, St-Estèphe 1 8/2/2014 $206.00
2003 Domaine Comte de Vogüé Chambolle-Musigny 1er Cru 1 8/2/2014 $165.00
2005 Duhart-Milon-Rothschild, Pauillac 2 8/2/2014 $155.00
2008 Clinet, Pomerol 1 8/2/2014 $73.00
2003 Climens, Barsac 1 8/2/2014 $73.00
2001 Casanova di Neri "Tenuta Nuova" Brunello di Montalcino 1 8/2/2014 $155.00
2001 Henry's Drive "Reserve" Shiraz Padthaway South Australia 2 8/2/2014 $97.00
2005 Clerico "Ciabot Mentin Ginestra" Barolo 1 8/2/2014 $83.00
2007-2010 Domaine du Clos du Caillou "Les Quartz" Châteauneuf-du-Pape Tasting Lot 2 8/2/2014 $132.00
2004 Camille Giroud Chambertin Grand Cru 1 8/2/2014 $121.00
2001 Bruno Giacosa "Asili" Barbaresco 1 8/2/2014 $183.00
2009 Domaine de Chevalier Blanc, Pessac-Léognan 2 8/2/2014 $170.88
2005 Bouchard Père et Fils Le Corton Grand Cru 1 8/2/2014 $115.00
1990 Bollinger Grand Année Brut Champagne 1 8/2/2014 $177.66
2002 Ausone, St-Emilion 1 8/2/2014 $391.02
2003 Joseph Drouhin Beaune 1er Cru "Clos des Mouches" Rouge 1 8/2/2014 $74.00
2000 & 2003 Domaine de Chevalier Rouge and Blanc, Pessac-Léognan Tasting Lot 2 8/2/2014 $122.00
1995 Araujo "Eisele Vineyard" Napa Valley Cabernet Sauvignon 1 8/2/2014 $231.00
2003, 2005 & 2010 Clos Fourtet, St-Emilion Tasting Lot 3 8/2/2014 $372.48
1986 Pavillon Rouge, Margaux 1 8/2/2014 $92.00
1987 Ducru-Beaucaillou, St-Julien 1 8/2/2014 $81.00
1989 Domaine Armand Rousseau Clos de la Roche Grand Cru 1 8/2/2014 $392.00
2000 Canon-La-Gaffelière, St-Emilion 2 8/2/2014 $230.00
2002 Moet & Chandon "Dom Pérignon" Brut Champagne 1 8/2/2014 $155.00
2001 La Mission Haut-Brion, Pessac-Léognan 1 8/2/2014 $180.00
2005 Angélus, St-Emilion 1 8/2/2014 $317.00
2001 Henri Boillot Puligny-Montrachet 1er Cru "Les Folatières" 6 8/2/2014 $300.00
2007 Clos des Papes Châteauneuf-du-Pape 1 8/2/2014 $187.00
2004 Quilceda Creek Columbia Valley Cabernet Sauvignon 1 8/2/2014 $180.00
2000 Pichon-Lalande, Pauillac 2 8/2/2014 $380.01
2000-2001 Kistler "Durell Vineyard" Sonoma Valley Chardonnay Vertical 2 8/2/2014 $145.00
2001 Shafer "Hillside Select" Stags Leap District Cabernet Sauvignon 1 8/2/2014 $320.01
2005, 2007-2008 Saxum Paso Robles Red Tasting Lot 4 8/2/2014 $448.00
1991 Joseph Phelps "Insignia" Napa Valley Bordeaux Blend 2 8/2/2014 $650.00
1993 Jordan Alexander Valley Cabernet Sauvignon 4 8/2/2014 $190.93
2001 Williams-Selyem Russian River Valley Zinfandel Multi-Format Lot 2 8/2/2014 $100.00
2005 Sine Qua Non "Atlantis fe203-1a" Syrah 1 8/2/2014 $510.00
2000, 2003 & 2005 Lynch-Bages, Pauillac Tasting Lot 3 8/1/2014 $488.00
1998 Krug Brut Champagne 1 8/1/2014 $285.00
2006 Scarecrow Napa Valley Cabernet Sauvignon 1 8/1/2014 $351.41
2009 Domaine Louis Jadot Bonnes Mares Grand Cru 3 8/1/2014 $725.00
2007 Domaine Ramonet Bâtard-Montrachet Grand Cru 3 8/1/2014 $855.00
2005 Domaine du Clos de Tart Clos de Tart Grand Cru 3 8/1/2014 $1,170.00
2009 Domaine Eugenie Clos Vougeot Grand Cru 3 8/1/2014 $570.00
2005 Domaine Henri Perrot-Minot Charmes-Chambertin Grand Cru "Vieilles Vignes" 3 8/1/2014 $705.00
1999 Ausone, St-Emilion 2 8/1/2014 $931.00
2008 Bouchard Pere et Fils Montrachet Grand Cru 2 8/1/2014 $895.00
2008 Domaine Comte de Vogüé Musigny Grand Cru "Vieilles Vignes" 3 8/1/2014 $1,475.00
1988 J.-F. Coche-Dury Mersault "Les Rougeots" 5 8/1/2014 $1,950.00
2009 La Fleur-Petrus, Pomerol (OWC) 12 8/1/2014 $2,404.44
2009 Marcassin "Marcassin Vineyard" Sonoma Coast Chardonnay 3 8/1/2014 $620.00
2001 DRC Domaine de la Romanée-Conti Montrachet Grand Cru 1 8/1/2014 $3,190.00
2001 Sine Qua Non "Vin de Paille Inamorata" Roussanne (375ml - OWC) 2 8/1/2014 $850.00
2003 Lafite-Rothschild, Pauillac 1 8/1/2014 $855.00
1982 Pichon-Baron, Pauillac 1 8/1/2014 $195.00
2005-2006 d'Issan, Margaux Vertical 2 8/1/2014 $140.00
1981 Penfolds Grange Hermitage 1 8/1/2014 $375.00
2005 Clos St. Martin, St-Emilion 2 8/1/2014 $322.00
1985 Pavillon Rouge, Margaux 1 8/1/2014 $120.00
1975 Mouton-Rothschild, Pauillac 1 8/1/2014 $225.00
1982 Mouton-Baronne-Philippe, Pauillac 1 8/1/2014 $109.00
1979 Les Forts de Latour, Pauillac 1 8/1/2014 $118.00
2000 & 2005 Clos l'Eglise, Pomerol Tasting Lot 2 8/1/2014 $270.00
1978 Ducru-Beaucaillou, St-Julien 1 8/1/2014 $102.00
2000 Clos Fourtet, St-Emilion 2 8/1/2014 $191.00
1981 Léoville-Las Cases, St-Julien 1 8/1/2014 $94.00
2005 Clos d'Oratoire, St-Emilion 2 8/1/2014 $133.00
1990 Caymus Napa Valley Cabernet Sauvignon 1 8/1/2014 $77.00
1986 Domaine du Vieux Lazaret Châteauneuf-du-Pape 1 8/1/2014 $42.00
2000 Clinet, Pomerol 2 8/1/2014 $195.00
1990 Domaine Comtes Lafon Volnay 1er Cru "Clos des Chenes" 1 8/1/2014 $230.00
1991 Domaine René Engel Grands-Échézeaux Grand Cru 1 8/1/2014 $316.00
2005-2006 Certan de May, Pomerol Vertical 2 8/1/2014 $136.00
1988 Pavie, St-Emilion 1 8/1/2014 $117.00
1989 Domaine Armand Rousseau Charmes-Chambertin Grand Cru 1 8/1/2014 $306.75
1999 Palmer, Margaux 1 8/1/2014 $246.00
1986 Margaux, Margaux 1 8/1/2014 $520.00
2006 Canon-La Gaffelière, St-Emilion 2 8/1/2014 $125.00
1991 Domaine Daniel Rion Nuits-St-Georges 1er Cru "Clos des Argillieres" 1 8/1/2014 $102.00
2005 Calon-Ségur, St-Estèphe 2 8/1/2014 $186.00
2005 Pichon-Lalande, Pauillac 1 8/1/2014 $120.88
2005 Brane-Cantenac, Margaux 2 8/1/2014 $135.00
2004 Louis Roederer "Cristal" Brut Champagne 1 8/1/2014 $265.00
1998 La Mission Haut-Brion, Pessac-Léognan 1 8/1/2014 $280.00
2003 Angélus, St-Emilion 1 8/1/2014 $207.00
2005 La Conseillante, Pomerol 1 8/1/2014 $220.00
2005 Branaire-Ducru, St-Julien 2 8/1/2014 $158.00
2002 Domaine Jean Boillot Puligny Montrachet 1er Cru "Les Pucelles" 3 8/1/2014 $255.00
2001 Valdicava Brunello di Montalcino 1 8/1/2014 $167.00
2006 Quilceda Creek "Palengat Vineyard" Horse Heaven Hills Cabernet Sauvignon 2 8/1/2014 $180.00
1990 Moët & Chandon "Cuvée Dom Pérignon" Brut Champagne 1 8/1/2014 $245.00
Assorted Saxum "Broken Stones" Paso Robles Rhône Blend Tasting Lot 4 8/1/2014 $380.00
1997 Joseph Phelps "Insignia" Napa Valley Proprietary Red 2 8/1/2014 $577.00
2007 Williams-Selyem Russian River Valley Pinot Noir 8 8/1/2014 $420.00
1999 Shafer "Hillside Select" Stags Leap District Cabernet Sauvignon 1 8/1/2014 $215.00
2004 Domaine de la Janasse "Vieilles Vignes" Châteauneuf-du-Pape (OWC) 12 7/31/2014 $952.00
2008 Domaine Paul Pernot Bâtard-Montrachet Grand Cru 11 7/31/2014 $1,700.00
1989 Domaine Leroy Clos Vougeot 2 7/31/2014 $1,075.00
2007 Harlan Estate Napa Valley Proprietary Red 2 7/31/2014 $1,590.00
2012 Aubert Sonoma County Chardonnay Horizontal 6 7/31/2014 $775.00
2010 Screaming Eagle Napa Valley Cabernet Sauvignon (OWC) 3 7/31/2014 $6,889.00
1999 Jean-Louis Chave Hermitage Rouge 3 7/31/2014 $913.00
2007 Domaine Saint Préfert "Collection Charles Giraud" Châteauneuf-du-Pape 3 7/31/2014 $776.00
2007 Pierre Usseglio "Reserve des Deux Freres" Châteauneuf-du-Pape 3 7/31/2014 $616.00
2005 Paul Hobbs "Beckstoffer To-Kalon" Oakville Cabernet Sauvignon 10 7/31/2014 $1,900.00
2011 Scarecrow Napa Valley Cabernet Sauvignon (OWC) 3 7/31/2014 $750.00
1990 Lafite-Rothschild, Pauillac 1 7/31/2014 $630.00
2004 Colgin "IX Estate" Napa Valley Tasting Lot 4 7/31/2014 $850.00
1997 Chateau Montelena "Estate" Napa Valley Cabernet Sauvignon 3 7/31/2014 $550.00
1985 Léoville-Las-Cases, St-Julien 3 7/31/2014 $625.00
1986 Mouton-Rothschild, Pauillac 1 7/31/2014 $801.00
1995 & 2003 Calon-Ségur, St-Estèphe Tasting Lot 2 7/31/2014 $207.00
1988 Château de Beaucastel Châteauneuf-du-Pape 1 7/31/2014 $84.00
1990 Domaine Bachelet Gevrey-Chambertin "Vieilles Vignes" 1 7/31/2014 $117.00
2000 Trotanoy, Pomerol 1 7/31/2014 $150.00
2005 Branon, Pessac-Leognan 3 7/31/2014 $246.00
2000 Cos d'Estournel, St-Estèphe 1 7/31/2014 $175.00
2010 Troplong Mondot, St-Emilion 1 7/31/2014 $155.00
2010 Rauzan-Ségla, Margaux 1 7/31/2014 $100.00
2002 Henry's Drive Shiraz 4 7/31/2014 $195.00

Palmer Hermitage Historical XIXth Century Blend L.20.06 1 7/31/2014 $190.00
2004 Pavillon Blanc, Margaux 1 7/31/2014 $140.00
2000 Brane-Cantenac, Margaux 3 7/31/2014 $180.00
2000 Bellevue, St-Emilion 2 7/31/2014 $190.00
2000 Malescot-St-Exupéry, Margaux 1 7/31/2014 $130.00
1995 Margaux, Margaux 1 7/31/2014 $435.00
2000 & 2003 Branaire-Ducru, St-Julien Tasting Lot 3 7/31/2014 $236.00
2010 Bordeaux Tasting Lot 4 7/31/2014 $454.44
2006 l'Evangile, Pomerol 1 7/31/2014 $166.00
2002 Louis Roederer "Cristal" Brut Champagne 1 7/31/2014 $215.00
2006 Bellevue-Mondotte, St-Emilion 2 7/31/2014 $217.00
1998 L'Eglise Clinet, Pomerol 1 7/31/2014 $266.00
2004 Latour, Pauillac 1 7/31/2014 $448.00
2005 Larcis-Ducasse, St-Emilion 1 7/31/2014 $155.00
2000 La Conseillante, Pomerol 1 7/31/2014 $165.00
1998 La Mondotte, St-Emilion 1 7/31/2014 $235.00
2000 Angélus, St-Emilion 1 7/31/2014 $358.00
2005 Bellefont-Belcier, St-Emilion 3 7/31/2014 $226.00
2004 Haut-Brion, Pessac-Léognan 1 7/31/2014 $350.00
2007-2010 Rivers-Marie "Summa Old Vines" Sonoma Coast Pinot Noir Vertical 4 7/31/2014 $318.99
2005 Henri Boillot Puligny-Montrachet 1er Cru "Clos de la Mouchère" 3 7/31/2014 $305.00
2003 Pichon-Lalande, Pauillac 2 7/31/2014 $310.00
2004 Pride Mountain "Reserve" Sonoma/Napa Counties Cabernet Sauvignon 1 7/31/2014 $125.00
1999 Beaune 1er Cru Tasting Set 3 7/31/2014 $180.00
2007 Quilceda Creek Columbia Valley Cabernet Sauvignon 1 7/31/2014 $205.00
2008 Kistler Sonoma Coast Pinot Noir 4 7/31/2014 $316.66
2010 Joseph Phelps "Freestone Vineyard" Sonoma Coast Pinot Noir 4 7/31/2014 $175.60
2008-2010 Saxum "James Berry Vineyard" Paso Robles Rhône Blend Vertical 3 7/31/2014 $400.00
1997 Shafer "Hillside Select" Stags Leap District Cabernet Sauvignon 1 7/31/2014 $338.00
2006 Sine Qua Non "The Raven No.1" Grenache 1 7/31/2014 $250.00
2001 Williams-Selyem Pinot Noir Horizontal 2 7/31/2014 $71.50
2007 Clos Saint-Jean "Deus Ex Machina" Châteauneuf-du-Pape 3 7/30/2014 $1,260.00
2007 Domaine La Barroche "Pure" Châteauneuf-du-Pape 3 7/30/2014 $805.00
2007 Domaine de la Janasse "Vieilles Vignes" Châteauneuf-du-Pape 3 7/30/2014 $925.00
2010 Schrader Napa Valley Cabernet Sauvignon Horizontal (OWC) 4 7/30/2014 $1,140.00
2004 Harlan Estate Napa Valley Proprietary Red 4 7/30/2014 $1,971.00
2009 Hundred Acre "Kayli Morgan" Napa Valley Cabernet Sauvignon 6 7/30/2014 $1,230.00
2007 Abreu "Madrona Ranch" Napa Valley Cabernet Sauvignon 2 7/30/2014 $635.00
2000 Margaux, Margaux 2 7/30/2014 $1,905.00
2005 Colgin "IX Estate" Napa Valley Bordeaux Blend 3 7/30/2014 $700.00
2010 Scarecrow Napa Valley Cabernet Sauvignon (OWC) 3 7/30/2014 $1,250.00
1988 Latour, Pauillac 2 7/30/2014 $835.00
2000 Bryant Family Napa Valley Cabernet Sauvignon 4 7/30/2014 $871.50
2002 Domaine William Fèvre Chablis Grand Cru "Les Clos" (OWC) 6 7/30/2014 $700.00
2005 DRC Domaine de la Romanée-Conti La Tâche Grand Cru 1 7/30/2014 $3,601.00
1990 Lafite-Rothschild, Pauillac (1.5L) 1 7/30/2014 $1,406.00
1970 Heitz Cellar "Martha's Vineyard" Napa Valley Cabernet Sauvignon 2 7/30/2014 $840.00
1993 Mouton-Rothschild, Pauillac (Balthus Label) 3 7/30/2014 $905.00
2005 Sine Qua Non Sta. Rita Hills Tasting Lot (OWC) 5 7/30/2014 $5,761.00
2001 Haut-Brion, Pessac-Léognan 1 7/30/2014 $347.00
2000 Grand-Puy-Lacoste, Pauillac 1 7/30/2014 $116.85
2008 Belair-Monange, St-Emilion 2 7/30/2014 $167.25
2005 St-Emilion Tasting Lot (OWC) 9 7/30/2014 $726.00
2003 d'Yquem, Sauternes 1 7/30/2014 $240.00
2005 Figeac, St-Emilion 1 7/30/2014 $140.88
1995 Ducru-Beaucaillou, St-Julien 1 7/30/2014 $180.00
1995 Clinet, Pomerol 1 7/30/2014 $215.00
2005 Bordeaux Tasting Lot 8 7/30/2014 $660.00
2001 Cheval Blanc, St-Emilion 1 7/30/2014 $360.00
2005 Chapelle d'Ausone, St Emillion 1 7/30/2014 $202.50
2005 Barde-Haut, St-Emilion 2 7/30/2014 $100.01
2005 Alter Ego de Palmer, Margaux 2 7/30/2014 $160.00
1998 Angélus, St-Emilion 1 7/30/2014 $220.00
2005 Bellevue-Mondotte, St-Emilion 1 7/30/2014 $226.00
2007 Vérité "La Joie" Sonoma County Bordeaux Blend 1 7/30/2014 $291.00
1983 de Fargues, Sauternes 6 7/30/2014 $512.00
1999 Maison Leroy Corton Grand Cru 2 7/30/2014 $725.00
2009 Clos du Marquis, St-Julien 3 7/30/2014 $155.00
2010 Rivers-Marie Sonoma Coast Pinot Noir Horizontal 2 7/30/2014 $150.00
2000 Réserve de la Comtesse de Lalande, Pauillac 5 7/30/2014 $225.00
2001 Tardieu-Laurent Châteauneuf-du-Pape Vieilles Vignes 3 7/30/2014 $140.00
2004 Vincent Girardin Meursault 1er Cru "Les Perrières" 2 7/30/2014 $111.11
2000 Rene et Vincent Dauvissat Chablis Grand Cru "Les Clos" 2 7/30/2014 $350.00
1998 Le Vieux Donjon Châteauneuf-du-Pape 6 7/30/2014 $492.00
2000 Domaine du Pégaü "Cuvée Reservée" Châteauneuf-du-Pape 6 7/30/2014 $516.66
2000 Calon-Ségur, St-Estèphe 2 7/30/2014 $187.00
2000 Léoville-Barton, St-Julien 2 7/30/2014 $325.01
2002 Pichon-Lalande, Pauillac 2 7/30/2014 $220.00
2005-2006 Quilceda Creek "Galitzine Vineyard" Red Mountain Cabernet Sauvignon Vertical 2 7/30/2014 $235.00
2002 Paul Hobbs Napa Valley Cabernet Sauvignon 1 7/30/2014 $73.71
2004-2005 Sea Smoke "Ten" Sta. Rita Hills Pinot Noir Vertical 2 7/30/2014 $261.00
1999 Puligny-Montrachet 1er Cru "Champ-Canet" Tasting Set 2 7/30/2014 $101.00
2003 Paolo Scavino "Bric dël Fiasc" Barolo (1.5L) 1 7/30/2014 $142.00
2007 Pride Mountain "Reserve" Sonoma-Napa Counties Cabernet Sauvignon 1 7/30/2014 $146.92
2009 Kistler "Kistler Vineyard" Sonoma Coast Pinot Noir 3 7/30/2014 $255.00
2008 Saxum "Broken Stones" Paso Robles Syrah 2 7/30/2014 $185.00
2009 Joseph Phelps "Freestone Vineyard" Sonoma Coast Pinot Noir 6 7/30/2014 $246.00
1999 Szepsy Tokaji Aszu 6 Puttonyos (500ml) 3 7/30/2014 $310.00
2002 Williams-Selyem Sonoma County Pinot Noir Horizontal 2 7/30/2014 $102.00
2004 Shafer "Hillside Select" Stags Leap District Cabernet Sauvignon 1 7/30/2014 $276.00
2008 Schrader Napa Valley Cabernet Sauvignon Horizontal (OWC) 4 7/29/2014 $1,650.00
2005 Château Rayas Châteauneuf-du-Pape 3 7/29/2014 $1,405.00
2005 Château de Beaucastel "Hommage a Jacques Perrin" Châteauneuf-du-Pape 3 7/29/2014 $1,070.00
1990 La Mission-Haut-Brion, Pessac-Léognan 2 7/29/2014 $1,200.00
1990 Cheval Blanc, St-Emilion 2 7/29/2014 $1,775.00
2008 Hundred Acre "Few and Far Between" Napa Valley Cabernet Sauvignon 3 7/29/2014 $675.01
2004 Araujo "Eisele Vineyard" Napa Valley Cabernet Sauvignon 4 7/29/2014 $750.00
1997 Bryant Family Napa Valley Cabernet Sauvignon 2 7/29/2014 $1,450.00
2002 Colgin "Cariad" Napa Valley Proprietary Red 2 7/29/2014 $596.00
2006 Margaux, Margaux 2 7/29/2014 $826.50
2009 Scarecrow Napa Valley Cabernet Sauvignon (OWC) 3 7/29/2014 $1,145.00
1997 Abreu "Madrona Ranch" Napa Valley Cabernet Sauvignon 2 7/29/2014 $1,010.00
1998 Lafite-Rothschild, Pauillac (375ml) 2 7/29/2014 $646.00
1972 Domaine Dujac Clos de la Roche Grand Cru 1 7/29/2014 $825.00
2002 Latour, Pauillac 2 7/29/2014 $927.00
2008 Sine Qua Non "The Line" Grenache 4 7/29/2014 $1,137.00
1993 Mouton-Rothschild, Pauillac (Blank Label) 3 7/29/2014 $765.00
2007 Marcassin "Marcassin Vineyard" Sonoma Coast Pinot Noir 3 7/29/2014 $955.00
1970 Suduiraut, Sauternes 2 7/29/2014 $177.00
2009 Reserve de la Comtesse Lalande, Pauillac 3 7/29/2014 $145.00
1971 Rouquette Saint-Amand, Sauternes 3 7/29/2014 $135.00
1987 California Red Tasting Lot 6 7/29/2014 $250.00
2009 Pavie-Macquin, St-Emilion 3 7/29/2014 $312.00
2010 Rivers-Marie "Gioia" Sonoma Coast Pinot Noir 2 7/29/2014 $135.00
2000 Siran, Margaux 6 7/29/2014 $370.00
1999 Tardieu-Laurent Châteauneuf-du-Pape Vieilles Vignes 4 7/29/2014 $185.00
2000 Reignac, Bordeaux Supérieur 4 7/29/2014 $136.00
2001 Pierre Usseglio et Fils "Réserve des Deux Frères" Châteauneuf-du-Pape 2 7/29/2014 $330.00
2002 Henri Boillot Meursault 1er Cru "Les Genevrières" 3 7/29/2014 $358.00
1996 Grand-Puy-Lacoste, Pauillac 2 7/29/2014 $210.00
2005 Domaine William Fevre Chablis Grand Cru "Les Preuses" 4 7/29/2014 $301.01
2001 D'Arenberg "The Dead Arm" Shiraz McLaren Vale South Australia 3 7/29/2014 $360.00
2000 Fombrauge, St-Emilion 6 7/29/2014 $370.00
2001 Clos du Marquis, St-Julien 2 7/29/2014 $128.00
2000 Churchill's Vintage Port 2 7/29/2014 $125.01
2009 Smith Haut Lafitte Rouge, Pessac-Léognan 1 7/29/2014 $260.00
2009 Lynch-Bages, Pauillac 1 7/29/2014 $225.00
2000 Château du Mourre du Tendre Châteauneuf-du-Pape 6 7/29/2014 $370.00
2004 Sea Smoke "Southing" Sta. Rita Hills Pinot Noir 3 7/29/2014 $225.00
2000 Les Clos du Caillou "Reserve" Châteauneuf-du-Pape 1 7/29/2014 $175.00
1989 Pichon-Lalande, Pauillac 1 7/29/2014 $145.00
2011 Aubert "UV-SL Vineyard" Sonoma Coast Pinot Noir 2 7/29/2014 $215.00
2011 Paul Hobbs "Katherine Lindsay Estate--Cuvee Agustina" Russian River Valley Pinot Noir 2 7/29/2014 $165.00
2005 Radio-Coteau "Savoy" Anderson Valley Pinot Noir 2 7/29/2014 $101.00
2009 Quilceda Creek Columbia Valley Cabernet Sauvignon 1 7/29/2014 $165.00
2006 Pride Mountain Vineyards "Reserve" Sonoma/Napa Counties Cabernet Sauvignon 1 7/29/2014 $166.00
2009 Harlan "The Maiden" Napa Valley Proprietary Red (OWC) 3 7/29/2014 $615.00
1999 Puligny-Montrachet 1er Cru Tasting Set 4 7/29/2014 $206.00
2007 M. Chapoutier "Croix de Bois" Châteauneuf-du-Pape 4 7/29/2014 $270.00
2008 Kistler "Silver Belt Vineyard, Cuvee Natalie" Sonoma Coast Pinot Noir 4 7/29/2014 $400.00
1994 La Croix de Gay, Pomerol 3 7/29/2014 $110.00
2007 Domaine du Vieux Telegraphe "La Crau" Châteauneuf-du-Pape 3 7/29/2014 $270.00
2005 Pichon-Baron, Pauillac 2 7/29/2014 $303.00
2006 Saxum "Broken Stones" Paso Robles Syrah 1 7/29/2014 $135.00
2011 Freestone (Joseph Phelps) "Quarter Moon" Sonoma Coast Pinot Noir 4 7/29/2014 $190.25
2005 Léoville-Barton, St-Julien 2 7/29/2014 $262.00
1999 Williams Selyem "Rochioli Riverblock" Russian River Valley Pinot Noir 2 7/29/2014 $165.00
2000 Shafer "Hillside Select" Napa Valley Cabernet Sauvignon 1 7/29/2014 $176.00
1989 Cos d'Estournel, St-Estèphe (OWC) 12 7/28/2014 $1,750.00
2007 Hundred Acre "Deep Time" Napa Valley Cabernet Sauvignon 2 7/28/2014 $650.00
1989 Beychevelle, St-Julien (OWC) 12 7/28/2014 $1,080.00
1996 Bryant Family Napa Valley Cabernet Sauvignon 2 7/28/2014 $928.00
2006 Larkmead "The Lark" Napa Valley Cabernet Sauvignon 6 7/28/2014 $810.00
2004 Colgin "Cariad" Napa Valley Bordeaux Blend (OWC) 3 7/28/2014 $825.10
2003 Araujo "Eisele Vineyard" Napa Valley Cabernet Sauvignon 4 7/28/2014 $820.00
1982 Haut Brion, Pessac-Léognan 2 7/28/2014 $1,100.00
1996 Abreu "Madrona Ranch" Napa Valley Cabernet Sauvignon 3 7/28/2014 $775.00
2001 Latour, Pauillac 2 7/28/2014 $785.00
2007 Scarecrow Napa Valley Cabernet Sauvignon (OWC) 2 7/28/2014 $1,400.00
2002 Margaux, Margaux 2 7/28/2014 $745.00
1982 Cheval Blanc, St-Emilion 1 7/28/2014 $670.00
2006 DRC Domaine de la Romanée Conti Le Montrachet Grand Cru 1 7/28/2014 $3,500.00
2009 Domaine Leflaive Chevalier-Montrachet Grand Cru 3 7/28/2014 $1,160.00
2002 Dalla Valle "Maya" Napa Valley Bordeaux Blend 2 7/28/2014 $865.00
2005 Peter Michael "Les Pavots" Knights Valley Bordeaux Blend 1 7/28/2014 $150.92
2009 Pontet-Canet, Pauillac 1 7/28/2014 $300.00
2005 Malescot-St-Exupéry, Margaux 2 7/28/2014 $265.50
1995 Léoville-Las-Cases, St-Julien 1 7/28/2014 $165.00
1995-1996 Léoville-Barton, St-Julien Vertical 2 7/28/2014 $175.00
2002 Pahlmeyer Napa Valley Proprietary Red 1 7/28/2014 $225.00
2009 Clinet, Pomerol 1 7/28/2014 $326.00
2009 Kosta Browne Sonoma Coast Pinot Noir 2 7/28/2014 $240.00
1996 Spring Mountain "Reserve" Napa Valley Red 3 7/28/2014 $197.50
2006 Clos des Papes Châteauneuf-du-Pape (1.5L) 1 7/28/2014 $230.00
1998 Monbousquet, St-Emilion 1 7/28/2014 $92.00
1998, 2001 & 2003 Clerc-Milon, Pauillac Tasting Lot 3 7/28/2014 $185.00
2000 M. Chapoutier "Terra d'Or" Coteaux d'Aix-en-Provence 1 7/28/2014 $72.00
2003 Warre Vintage Port 3 7/28/2014 $120.00
2000 Les Pagodes de Cos, St-Estèphe 1 7/28/2014 $70.10
2004 Domaine Janasse "Chaupin" Châteauneuf-du-Pape 5 7/28/2014 $305.00
1999 Domaine du Clos du Caillou "Reserve les Clos du Caillou" Châteauneuf-du-Pape 1 7/28/2014 $72.00
1986 Pichon-Lalande, Pauillac 1 7/28/2014 $240.00
2000 Pichon-Baron, Pauillac 1 7/28/2014 $180.00
2010-2011 Aubert "UV-SL Vineyard" Sonoma Coast Chardonnay Vertical 2 7/28/2014 $177.00
2011 Paul Hobbs "Hyde Vineyard" Carneros Pinot Noir 2 7/28/2014 $100.00
2005 Radio-Coteau "La Neblina" Sonoma Coast Pinot Noir 2 7/28/2014 $90.00
2008 Harlan "The Maiden" Napa Valley Proprietary Red (OWC) 2 7/28/2014 $281.50
2001 Stag's Leap Wine Cellars "SLV" Napa Valley Cabernet Sauvignon 3 7/28/2014 $222.00
2008 Quilceda Creek Columbia Valley Cabernet Sauvignon 1 7/28/2014 $180.00
2007 Domaine Henri Boillot Puligny-Montrachet 1er Cru Horizontal 2 7/28/2014 $147.00
2004 Pride Mountain Vineyards Sonoma/Napa Counties Cabernet Sauvignon (1.5L) 1 7/28/2014 $117.50
2007 Domaine du Vieux Telegraphe "La Crau" Châteauneuf-du-Pape (1.5L) 1 7/28/2014 $205.00
1994 Lynch-Bages, Pauillac 4 7/28/2014 $413.00
1985 Moët & Chandon "Cuvée Dom Pérignon" Brut Champagne 1 7/28/2014 $246.00
2009 Sea Smoke "Southing" Sta. Rita Hills Pinot Noir 2 7/28/2014 $165.00
2000 Paolo Scavino "Bric del Fiasc" Barolo (1.5L) 1 7/28/2014 $245.00
2005 Château de Beaucastel Châteauneuf-du-Pape (1.5L) 1 7/28/2014 $180.00
2010 Freestone (Joseph Phelps) "Quarter Moon" Sonoma Coast Pinot Noir 4 7/28/2014 $187.00
2009 Kistler "Occidental Station Cuvée Catherine" Sonoma Coast Pinot Noir 2 7/28/2014 $266.00
2008-2009 Saxum "Booker Vineyard" Paso Robles Rhône Blend Vertical 3 7/28/2014 $370.00
2005 Palmer, Margaux 2 7/28/2014 $516.00
1998 Shafer "Hillside Select" Napa Valley Cabernet Sauvignon 1 7/28/2014 $175.00
2005 Rieussec, Sauternes 3 7/28/2014 $185.00
1987 Heitz Cellar "Bella Oaks" Napa Valley Cabernet Sauvignon 3 7/28/2014 $120.00
2006 Sine Qua Non "The Raven No. 9" Grenache 1 7/28/2014 $267.00
1998 Domaine Thierry Allemand "Reynard" Cornas 2 7/28/2014 $641.00
1998 Williams-Selyem "Precious Mountain" Sonoma Coast Pinot Noir 2 7/28/2014 $125.00
2001 Araujo "Eisele Vineyard" Napa Valley Cabernet Sauvignon 3 7/27/2014 $826.00
1995 Bryant Family Napa Valley Cabernet Sauvignon 2 7/27/2014 $869.00
1994 Dominus Estate Napa Valley Proprietary Red 3 7/27/2014 $776.00
2005 Scarecrow Napa Valley Cabernet Sauvignon (OWC) 2 7/27/2014 $735.00
2006 Marcassin "Marcassin Vineyard" Sonoma Coast Pinot Noir 4 7/27/2014 $820.00
Assorted Léoville-Poyferré, St-Julien Tasting Lot 4 7/27/2014 $590.00
2006 Léoville-Barton, St-Julien (OWC) 12 7/27/2014 $785.00
1999 Latour, Pauillac 2 7/27/2014 $850.00
1987 DRC Domaine de la Romanée-Conti Grand Cru "La Tâche" 1 7/27/2014 $1,350.00
2000 Cheval Blanc, St-Emilion 1 7/27/2014 $702.00
1999 Haut-Brion, Pessac-Léognan 2 7/27/2014 $650.00
2002 Dalla Valle Napa Valley Cabernet Sauvignon 8 7/27/2014 $826.00
2001 Domaine Beaurenard "Cuvée Boisrenard" Châteauneuf-du-Pape 6 7/27/2014 $518.00
1982 Mouton-Rothschild, Pauillac 1 7/27/2014 $850.00
1969 Heitz Cellar "Martha's Vineyard" Napa Valley Cabernet Sauvignon 3 7/27/2014 $1,095.00
2008 Sine Qua Non "B 20" Syrah 6 7/27/2014 $1,281.00
1990 Grand-Puy-Lacoste, Pauillac 1 7/27/2014 $190.00
1983 & 1986 Guiraud, Sauternes Tasting Lot 2 7/27/2014 $102.00
2000 Gruaud Larose, St-Julien 1 7/27/2014 $135.00
2005 Sea Smoke Sta. Rita Hills Pinot Noir Horizontal 2 7/27/2014 $150.00
2001 Cos d'Estournel, St-Estèphe 1 7/27/2014 $122.00
1975 Mount Eden Estate Pinot Noir 1 7/27/2014 $177.00
1979 Margaux, Margaux 1 7/27/2014 $260.00
2005 Patrick Lesec "Galets Blonds" Châteauneuf-du-Pape 3 7/27/2014 $110.00
1978 Duckhorn "Three Palms" Napa Valley Merlot 1 7/27/2014 $105.00
1956 Charles Krug Napa Valley Cabernet Sauvignon 1 7/27/2014 $230.00
2010 Paul Hobbs "Hyde Vineyard" Carneros Pinot Noir 2 7/27/2014 $165.00
1974 Chalone "Estate" Chalone Pinot Noir 1 7/27/2014 $227.22
2009 Jean-Michel Stephan Côte-Rôtie 3 7/27/2014 $205.00
2011 Aubert "UV Vineyard" Sonoma Coast Pinot Noir 2 7/27/2014 $185.00
2012 Tensley "Colson Canyon Vineyard" Santa Barbara County Syrah 2 7/27/2014 $84.00
2010 Courbis "Les Eygats" Cornas 2 7/27/2014 $221.00
2007 Delas "Les Bessards" Hermitage 3 7/27/2014 $230.00
2009 Domaine Joblot Givry 1er Cru "Clos de la Servoisine" 2 7/27/2014 $90.00
2009 Coulet "Les Terrasses du Serre" Cornas 3 7/27/2014 $165.00
2009 A. Clape "Renaissance" Cornas 3 7/27/2014 $250.00
2001-2002 Robert Mondavi "Reserve" Napa Valley Cabernet Sauvignon Tasting Lot 2 7/27/2014 $181.00
2001 Stag's Leap Wine Cellars "Fay" Napa Valley Cabernet Sauvignon 2 7/27/2014 $136.00
2006 Robert Foley Napa Valley Claret 1 7/27/2014 $84.93
2005 Pride Mountain Vineyards "Reserve" Sonoma/Napa Counties Cabernet Sauvignon (1.5L) 1 7/27/2014 $267.00
2007 Colgin "Herb Lamb Vineyard" Napa Valley Cabernet Sauvignon 1 7/27/2014 $270.00
2007 Harlan "The Maiden" Napa Valley Proprietary Red 2 7/27/2014 $321.00
2009 Domaine Leflaive Puligny-Montrachet 1er Cru "Pucelles" 3 7/27/2014 $730.00
1999 Armand Rousseau Gevrey-Chambertin "Clos Saint Jacques" 1 7/27/2014 $750.00
1970 Lafite-Rothschild, Pauillac 1 7/27/2014 $282.00
1990 Giuseppe Quintarelli "Amabile del Cere" Bianco Veneto (375ml) 1 7/27/2014 $171.00
2006 Domaine de la Janasse Châteauneuf-du-Pape 6 7/27/2014 $285.00
2003-2004 Domaine Grand Veneur Châteauneuf-du-Pape Tasting Lot 2 7/27/2014 $93.99
2008 Kistler "Kistler Vineyard" Sonoma Coast Pinot Noir 4 7/27/2014 $346.66
Assorted Saxum "Bone Rock" James Berry Vineyard Paso Robles Rhone Blend Tasting Lot 4 7/27/2014 $410.00
2009 Freestone (Joseph Phelps) "Quarter Moon" Sonoma Coast Pinot Noir 2 7/27/2014 $93.00
2000 Pichon-Lalande, Pauillac (1.5L) 1 7/27/2014 $425.00
2002 Shafer "Hillside Select" Stags Leap District Cabernet Sauvignon 1 7/27/2014 $490.00
2001 Rieussec, Sauternes (375ml) 2 7/27/2014 $205.01
1999 Williams-Selyem "Hirsch" Sonoma Coast Pinot Noir 3 7/27/2014 $150.00
2006 Sine Qua Non "The Raven No. 6+7" Grenache 1 7/27/2014 $245.00
2006 Quilceda Creek Columbia Valley Cabernet Sauvignon 1 7/27/2014 $151.00
1978 Joseph Drouhin Musigny Grand Cru 1 7/26/2014 $1,556.00
2006 Casanova di Neri "Tenuta Nuova" Brunello di Montalcino 7 7/26/2014 $801.00
2007 Domaine Ramonet Le Montrachet Grand Cru 1 7/26/2014 $865.00
2007 Pride "Reserve" Sonoma/Napa Valley Cabernet Sauvignon (1.5L) 2 7/26/2014 $803.00
1970 DRC Domaine de la Romanée-Conti Grand Cru "La Tâche" 1 7/26/2014 $950.00
Assorted Vieux-Château-Certan, Pomerol Tasting Lot 5 7/26/2014 $875.00
2006 Cheval Blanc, St-Emilion 2 7/26/2014 $801.00
2006 Domaine Armand Rousseau Chambertin Grand Cru 1 7/26/2014 $775.00
1996 Silver Oak Napa Valley Cabernet Sauvignon (6L) (OWC) 1 7/26/2014 $735.00
2001 Château de Beaucastel Châteauneuf-du-Pape (OWC) 12 7/26/2014 $1,152.11
2009 Le Clarence de Haut-Brion, Pessac-Léognan 3 7/26/2014 $381.00
1990 Latour, Pauillac 1 7/26/2014 $701.00
2002 Mouton-Rothschild, Pauillac 2 7/26/2014 $600.00
2001 Dalla Valle Napa Valley Cabernet Sauvignon 9 7/26/2014 $825.00
2003-2007 & 2009 Clos des Papes Châteauneuf-du-Pape Tasting Lot 6 7/26/2014 $777.77
1988 Margaux, Margaux (375ml) 3 7/26/2014 $540.00
2005 Pavie, St-Emilion (OWC) 3 7/26/2014 $835.00
2000 Pichon-Lalande, Pauillac 3 7/26/2014 $602.00
2001 Léoville-Poyferre, St-Julien 2 7/26/2014 $166.00
1998 California Red Tasting Lot 6 7/26/2014 $210.00
2004 Ghost Block "Estate" Oakville Cabernet Sauvignon 3 7/26/2014 $208.00
2000 Bellefont-Belcier, St. Emilion 3 7/26/2014 $128.00
2000 d'Armailhac, Pauillac 2 7/26/2014 $110.00
2002 & 2005 Failla "Keefer Ranch" Russian River Valley Pinot Noir Tasting Lot 3 7/26/2014 $110.00
2001 Stag's Leap Wine Cellars "Cask 23" Napa Valley Cabernet Sauvignon 2 7/26/2014 $270.00
2004 Abreu "Rothwell Hyde" Napa Valley Bordeaux Blend 3 7/26/2014 $247.00
2003 Beaux Frères Willamette Valley Pinot Noir Horizontal 2 7/26/2014 $115.00
1997 Spring Mountain "Reserve" Napa Valley Cabernet Sauvignon 4 7/26/2014 $290.00
2004 Staglin "Estate" Napa Valley Cabernet Sauvignon 3 7/26/2014 $320.00
2009 Pahlmeyer Napa Valley Tasting Lot 2 7/26/2014 $190.00
2005 Fuligni Brunello di Montalcino 4 7/26/2014 $245.00
1997 Lynch-Bages, Pauillac 2 7/26/2014 $181.80
2000 Robert Mondavi "Reserve" Napa Valley Cabernet Sauvignon 2 7/26/2014 $145.00
1987 Flora Springs "Trilogy" Napa Valley Proprietary Red (1.5L) 1 7/26/2014 $80.00
2002 Lancaster Estate Alexander Valley Cabernet Sauvignon (375ml) 7 7/26/2014 $194.00
2003 Robert Foley Napa Valley Claret 1 7/26/2014 $115.50
2009 Maybach Family "Materium" Oakville Cabernet Sauvignon 1 7/26/2014 $155.00
2001 Colgin "Cariad" Napa Valley Proprietary Red 1 7/26/2014 $310.00
2002-2003 Harlan "The Maiden" Napa Valley Bordeaux Blend Vertical 2 7/26/2014 $360.00
2007 Pax "Cuvee Christine" North Coast Syrah (1.5L) 1 7/26/2014 $80.00
2002 Chassagne Montrachet 1er Cru "Morgeot" Blanc Tasting Set 5 7/26/2014 $335.00
2009 Coulet "Les Terrasses du Serre" Cornas (1.5L) 1 7/26/2014 $125.00
2005 Alban "Reva" Edna Valley Syrah (1.5L) 1 7/26/2014 $197.00
1996 Moet & Chandon "Dom Pérignon" Brut Champagne 1 7/26/2014 $215.00
2002 Quilceda Creek Cabernet Sauvignon 1 7/26/2014 $201.00
2011 Paul Hobbs Russian River Valley Chardonnay Tasting Set 4 7/26/2014 $240.00
2001 Pride Mountain Vineyards "Reserve" Napa Valley Cabernet Sauvignon 1 7/26/2014 $313.00
2009 Domaine Leflaive Puligny-Montrachet 1er Cru "Folatières" 3 7/26/2014 $345.00
1994 Lafite Rothschild, Pauillac 1 7/26/2014 $461.00
2010 Kistler "Cuvée Natalie--Silver Belt" Sonoma Coast Pinot Noir 3 7/26/2014 $290.00
2005 Domaine de la Janasse "Vieilles Vignes" Chateauneuf-du-Pape (1.5L) 1 7/26/2014 $190.00
2011 Joseph Phelps "Pastorale Vineyard" Sonoma Coast Pinot Noir 4 7/26/2014 $162.00
2006 Domaine Thierry-Allemand Cornas "Reynard" 3 7/26/2014 $487.00
1993 Jordan Alexander Valley Cabernet Sauvignon 4 7/26/2014 $185.00
2001 Shafer "Hillside Select" Stags Leap District Cabernet Sauvignon 1 7/26/2014 $360.01
2008 Saxum "Heart Stone Vineyard" Paso Robles Rhône Blend 1 7/26/2014 $98.01
2010 Marie et Pierre Benetiere "Cordeloux" Côte-Rôtie 2 7/26/2014 $235.00
1998 Williams Selyem "Hirsch Vineyard" Sonoma Coast Chardonnay 3 7/26/2014 $135.00
2006 Sine Qua Non "The Raven No. 5" Syrah 1 7/26/2014 $222.00
2009 Coche-Dury Meursault "Les Perrieres" 1 7/25/2014 $1,020.00
1999-2001 Pavie, St-Emilion Vertical 3 7/25/2014 $780.00
2010 Schrader "Old Sparky" Napa Valley Cabernet Sauvignon (1.5L) 1 7/25/2014 $785.00
2010 Clos Saint-Jean "Sanctus Sanctorum" Chateauneuf-du-Pape (1.5L) 1 7/25/2014 $1,260.00
Assorted Montrose, St-Estèphe Tasting Lot 4 7/25/2014 $550.00
1993 Screaming Eagle Napa Valley Cabernet Sauvignon 1 7/25/2014 $1,865.00
2002-2006 Cos d'Estournel, St-Estèphe Vertical (OWC) 5 7/25/2014 $715.00
1990 Margaux, Margaux 1 7/25/2014 $800.00
1999 Armand Rousseau Pere et Fils Chambertin Grand Cru 1 7/25/2014 $1,153.02
2005 Cheval Blanc, St-Emilion 2 7/25/2014 $1,011.34
1996 Latour, Pauillac 1 7/25/2014 $695.00
1989 Haut-Brion, Pessac-Léognan 5 7/25/2014 $5,670.00
2002 Domaine William Fevre Chablis Grand Cru "Valmur" (OWC) 6 7/25/2014 $312.23
2000 Château de Beaucastel Châteauneuf-du-Pape (OWC) 12 7/25/2014 $975.00
1988 Mouton-Rothschild, Pauillac 3 7/25/2014 $815.80
1997 Dalla Valle "Maya" Napa Valley Proprietary Red 2 7/25/2014 $725.00
1996 & 1999 Talley "Rincon Vineyard" Arroyo Grande Pinot Noir Tasting Set 2 7/25/2014 $90.00
2004 Two Hands "Bella's Garden" Shiraz Barossa Valley South Australia 1 7/25/2014 $84.00
1967 Suduiraut, Sauternes 1 7/25/2014 $140.00
2005 Harris Estate Vineyard "Treva's Vineyard" Napa Valley Cabernet Sauvignon 2 7/25/2014 $155.00
1972 Mayacamas Napa Valley Cabernet Sauvignon 1 7/25/2014 $251.00
2009 Harris Estate Vineyard "Lakeview Vineyard" Napa Valley Cabernet Sauvignon 2 7/25/2014 $115.00
1990 Meyney, St-Estèphe 1 7/25/2014 $44.00
1982 Brane-Cantenac, Margaux 1 7/25/2014 $70.00
2004 Tenuta San Guido "Sassicaia" Bolgheri 1 7/25/2014 $165.00
2001 Harlan "The Maiden" Napa Valley Bordeaux Blend (OWC) 2 7/25/2014 $332.03
2003-2004 Bordeaux Tasting Lot 2 7/25/2014 $165.00
1997 Stag's Leap Wine Cellars "Fay" Napa Valley Cabernet Sauvignon 1 7/25/2014 $70.00
2004 Tenuta dell'Ornellaia "Ornellaia" 1 7/25/2014 $181.00
2003 Bond Napa Valley Red Blend Horizontal 2 7/25/2014 $388.00
1997 Silver Oak Napa Valley Cabernet Sauvignon 1 7/25/2014 $134.56
2003 Staglin Family Vineyard Rutherford Estate Cabernet Sauvignon 1 7/25/2014 $110.00
2002 Opus One Napa Valley Proprietary Red 1 7/25/2014 $230.00
1994 Robert Mondavi "Reserve" Napa Valley Cabernet Sauvignon 1 7/25/2014 $145.00
2009 Donelan "Walker Vine Hill" Russian River Valley Syrah 6 7/25/2014 $409.00
2010 Levy & McClellan "Ampersand" Napa Valley Red Blend (OCB) 1 7/25/2014 $183.00
1985 Léoville-Barton, St-Julien 1 7/25/2014 $118.57
2010 Clos du Moulin aux Moines Pommard 1er Cru "Clos Orgelot" Monopole 6 7/25/2014 $311.00
2007 Herb Lamb "HL" Napa Valley Cabernet Sauvignon 1 7/25/2014 $125.00
2002 Chassagne-Montrachet 1er Cru "Chenevottes" Tasting Set 6 7/25/2014 $311.00
2001 Quilceda Creek Washington Cabernet Sauvignon 1 7/25/2014 $157.00
2003 Paul Hobbs "Beckstoffer To-Kalon" Oakville Napa Valley Cabernet Sauvignon 1 7/25/2014 $181.00
2009 Domaine Leflaive Puligny-Montrachet 1er Cru "Combettes" 3 7/25/2014 $505.00
2005 Pride Mountain Vineyards "Reserve" Sonoma/Napa Counties Cabernet Sauvignon 1 7/25/2014 $138.00
1995 Domaine Dujac Clos Saint Denis Grand Cru 1 7/25/2014 $555.00
1990 Moët & Chandon "Cuvée Dom Pérignon" Brut Champagne 1 7/25/2014 $235.00
2006 Domaine de la Janasse Châteauneuf du Pape "Vieilles Vignes" 2 7/25/2014 $172.00
2001 Valdicava Brunello di Montalcino 2 7/25/2014 $291.00
2003-2004 Paolo Scavino Barolo Tasting Lot 2 7/25/2014 $140.00
2006 Dominus Napa Valley Bordeaux Blend 1 7/25/2014 $205.00
2000 Casanova di Neri "Tenuta Nuova" Brunello di Montalcino 2 7/25/2014 $110.00
1999 Domaine Thierry-Allemand "Reynard" Cornas 2 7/25/2014 $489.00
2010 Saxum "Broken Stones" Paso Robles Rhône Blend 1 7/25/2014 $96.00
1997 Joseph Phelps "Insignia" Napa Valley Proprietary Red 2 7/25/2014 $553.00
2009 Marcassin "Marcassin Vineyard" Sonoma Coast Chardonnay 2 7/25/2014 $380.00
1999 Shafer "Hillside Select" Stags Leap District Cabernet Sauvignon 1 7/25/2014 $255.00
1990 Moët & Chandon "Cuvée Dom Pérignon Oenothèque" Brut Champagne (1.5L - Gift Box) 1 7/24/2014 $1,250.00
2009 Bond "Matriarch" Napa Valley Red Blend (OWC) 3 7/24/2014 $300.00
2007-2010 Rivers-Marie "Summa Old Vines" Sonoma Coast Pinot Noir Vertical 4 7/24/2014 $326.50
2000 Domaine William Fèvre Chablis Grand Cru "Les Clos" (OWC) 6 7/24/2014 $435.00
2004 Haut-Brion, Pessac-Léognan 2 7/24/2014 $626.00
2006 Peter Michael "Les Pavots" Knights Valley Bordeaux Blend (1.5L) 1 7/24/2014 $315.00
2002 Harlan Estate Napa Valley Proprietary Red 1 7/24/2014 $775.00
2000 Lafite Rothschild, Pauillac 1 7/24/2014 $1,551.00
1973 Heitz Cellars "Martha's Vineyard" Napa Valley Cabernet Sauvignon 3 7/24/2014 $700.00
2003 Sine Qua Non "Papa" Central Coast Syrah 3 7/24/2014 $1,250.00
1999 Beaune 1er Cru Tasting Set 4 7/24/2014 $211.00
1997 Raymond-Lafon, Sauternes (375ml) 4 7/24/2014 $130.00
1990 Nuits-St-Georges 1er Cru "Les Vignes Rondes" Tasting Set 4 7/24/2014 $250.00
1990 Beaune-Teurons 1er Cru Tasting Set 5 7/24/2014 $310.00
1999 Jean-Marc Boillot Pommard 1er Cru "Les Jarollières" 1 7/24/2014 $90.00
1990 Pommard 1er Cru "Fremiers" Tasting Set 2 7/24/2014 $150.00
1990 Domaine Leroy Nuits-St-Georges 1er Cru "Les Vignerondes" 1 7/24/2014 $310.00
2010 Sheridan Vineyards Yakima Valley Tasting Set 4 7/24/2014 $295.00
1996 Vilmart "Coeur de Cuvée" Champagne 1 7/24/2014 $163.03
2005 - 2007 Robert Mondavi Reserve Napa Valley Cabernet Sauvignon Tasting Set 3 7/24/2014 $311.00
2009 Rinaldi & Figli "Le Brunate" Barolo 6 7/24/2014 $246.50
2011 Aubert Carneros Chardonnay 1 7/24/2014 $75.00
1995 Rauzan-Ségla, Margaux 1 7/24/2014 $91.00
1985 Silver Oak "Bonny's Vineyard" Napa Valley Cabernet Sauvignon 2 7/24/2014 $278.00
2002 Robert Foley Napa Valley Claret 1 7/24/2014 $124.00
2002 Pride Mountain "Reserve" Napa Valley Cabernet Sauvignon 1 7/24/2014 $131.00
2006 Mollydooker "Carnival of Love" Shiraz McLaren Vale South Australia 1 7/24/2014 $106.00
1999 Vérité "La Joie" Red Wine 2 7/24/2014 $250.00
2007 Merryvale "Profile" Napa Valley Bordeaux Blend 1 7/24/2014 $82.00
1993 The Royal Tokaji Wine Co. " Szt. Tamas" Tokaji Aszu 6 Puttonyos (500ml) 2 7/24/2014 $175.00
2006 Colgin "Tychson Hill Vineyard" Napa Valley Cabernet Sauvignon 1 7/24/2014 $260.00
2010 Ramey "Pedregal" Oakville Cabernet Sauvignon 1 7/24/2014 $168.00
1997 Anderson's Conn Valley "Estate Reserve" Napa Valley Cabernet Sauvignon 3 7/24/2014 $205.00
1992 Dominus "Napanook Vineyard" Napa Valley Proprietary Red 1 7/24/2014 $125.00
2009 Domaine Leflaive Puligny-Montrachet 1er Cru "Clavoillons" 3 7/24/2014 $343.00
1998 Château de Beaucastel Châteauneuf-du-Pape 4 7/24/2014 $341.00
2007 Domaine de la Janasse "Chaupin" Châteauneuf-du-Pape 2 7/24/2014 $180.00
2007 Quilceda Creek Columbia Valley Cabernet Sauvignon 1 7/24/2014 $270.00
2006-2007 Kistler "Cuvée Natalie" Silver Belt Sonoma Coast Pinot Noir Vertical 2 7/24/2014 $190.00
2004 Paolo Scavino Barolo "Bric del Fiasc" (1.5L) 1 7/24/2014 $215.00
1984 Dehlinger Russian River Valley Cabernet Sauvignon (3L) 1 7/24/2014 $245.00
2010 Freestone (Joseph Phelps) "Pastorale Vineyard" Sonoma Coast Pinot Noir 4 7/24/2014 $208.00
2009 Kinsella "Tamara Vineyard" Dry Creek Valley Cabernet Sauvignon (OWC) 3 7/24/2014 $290.00
2009 & 2011 Saxum "Paderewski Vineyard" Paso Robles Red Blend Tasting Lot 2 7/24/2014 $195.00
1997 Chateau Montelena "Estate" Napa Valley Cabernet Sauvignon 2 7/24/2014 $439.00
1985 Léoville-Las-Cases, St-Julien 2 7/24/2014 $440.00
2001 Domaine Thierry-Allemand "Reynard" Cornas 3 7/24/2014 $675.00
1999 Dalla Valle Napa Valley Cabernet Sauvignon 3 7/24/2014 $311.00
1976 & 1980-1982 Kenwood "Artist Series" Sonoma County Cabernet Sauvignon Tasting Lot 8 7/24/2014 $260.00
1973 Mouton-Rothschild, Pauillac 1 7/24/2014 $210.00
1999 Williams-Selyem "Ferrington" Anderson Valley Pinot Noir 3 7/24/2014 $135.00
1997 Shafer "Hillside Select" Stags Leap District Cabernet Sauvignon 1 7/24/2014 $338.01
2008 Sine Qua Non "Kolibri" Proprietary White 1 7/24/2014 $145.00
1966 Pichon-Baron, Pauillac 3 7/23/2014 $405.00
2000 Malescot-St-Exupéry, Margaux (OWC) 6 7/23/2014 $550.00
2000 Réserve de la Comtesse de Lalande, Pauillac 6 7/23/2014 $330.00
2000 Rene et Vincent Dauvissat Chablis Grand Cru "Les Clos" 2 7/23/2014 $356.00
2005 Henri Boillot Corton-Charlemagne Grand Cru (375ml) 5 7/23/2014 $450.00
2001 Louis Latour Corton-Charlemagne Grand Cru (OWC) 6 7/23/2014 $362.02
2002 Henri Boillot Corton-Charlemagne Grand Cru 3 7/23/2014 $325.00
2000 Domaine du Pégaü "Cuvée Reservée" Châteauneuf-du-Pape 6 7/23/2014 $415.00
2009 Marcassin "Marcassin Vineyard" Sonoma Coast Pinot Noir 3 7/23/2014 $615.00
2008 Bond "Matriarch" Napa Valley Red Blend (OWC) 3 7/23/2014 $285.00
1990 Haut-Brion, Pessac-Léognan 1 7/23/2014 $675.00
1986 Mouton-Rothschild, Pauillac 2 7/23/2014 $1,390.00
1985 Ducru-Beaucaillou, St-Julien 12 7/23/2014 $1,200.00
2010 Maybach Family "Materium" Oakville Cabernet Sauvignon 1 7/23/2014 $140.01
2012 Rivers-Marie Sonoma Coast Pinot Noir 5 7/23/2014 $336.00
2010 Aubert "UV-SL Vineyard" Sonoma Coast Pinot Noir 1 7/23/2014 $101.00
2010 Ramey "Rodgers Creek Vineyard" Sonoma Coast Syrah 1 7/23/2014 $49.00
2006 Casa Lapostolle "Clos Apalta" Colchagua Valley 3 7/23/2014 $185.00
2002 Merus Napa Valley Cabernet Sauvignon 2 7/23/2014 $217.50
1995 Opus One Napa Valley Proprietary Red 1 7/23/2014 $230.00
1991 Dominus "Napanook Vineyard" Napa Valley Proprietary Red 1 7/23/2014 $270.00
1997 Grace Family Cabernet Sauvignon (1L) 1 7/23/2014 $270.00
1995 Cos d'Estournel, St-Estèphe 1 7/23/2014 $167.00
1976 Chateau Montelena North Coast Cabernet Sauvignon 2 7/23/2014 $220.00
2000 Calon-Ségur, St-Estèphe 1 7/23/2014 $103.00
1992 Moet & Chandon "Cuvée Dom Pérignon" Brut Champagne 1 7/23/2014 $165.00
2010 Quilceda Creek "Palengat Vineyard" Horse Heaven Hills Cabernet Sauvignon 1 7/23/2014 $104.28
1976 Lynch Bages, Pauillac 1 7/23/2014 $145.00
2009 Henri Boillot Bienvenues-Batard-Montrachet Grand Cru (375ml) 4 7/23/2014 $350.00
2008 Colgin "Tychson Hill Vineyard" Napa Valley Cabernet Sauvignon 1 7/23/2014 $221.00
2010 Peter Michael "Ma Danseuse" Sonoma Coast Pinot Noir 1 7/23/2014 $480.00
2007 Domaine Leflaive Puligny-Montrachet (1.5L) 1 7/23/2014 $200.00
2000 Turley "Old Vines" California Zinfandel 3 7/23/2014 $109.00
2006 Tenimenti Luigi d'Alessandro (Manzano) "Il Bosco" Syrah 2 7/23/2014 $84.00
2008 Harlan Estate Napa Valley Proprietary Red (OWC) 1 7/23/2014 $530.00
2006 Domaine de la Janasse "Chaupin" Châteauneuf-du-Pape 4 7/23/2014 $265.00
2002 Mitolo "G.A.M." Shiraz McLaren Vale South Australia 4 7/23/2014 $200.00
2004-2005 Pride Mountain Sonoma County Syrah Vertical 4 7/23/2014 $120.00
1982 Beaulieu Vineyard "Georges de Latour" Private Reserve Napa Valley Cabernet Sauvignon 4 7/23/2014 $315.02
2006 Château de Beaucastel Châteauneuf-du-Pape 3 7/23/2014 $215.00
1986 Dehlinger Russian River Valley Cabernet Sauvignon (1.5L) 1 7/23/2014 $100.00
1983 Lafite Rothschild, Pauillac 1 7/23/2014 $430.00
2003 Paolo Scavino "Bric dël Fiasc" Barolo (1.5L) 1 7/23/2014 $130.00
2008 Kistler "Bodega Headlands Cuvée Elizabeth" Sonoma Coast Pinot Noir 4 7/23/2014 $480.00
2009 Freestone (Joseph Phelps) "Pastorale Vineyard" Sonoma Coast Pinot Noir 2 7/23/2014 $105.00
1996-1998 Dalla Valle Napa Valley Cabernet Sauvignon Vertical 3 7/23/2014 $270.00
2008 Saxum "James Berry Vineyard" Paso Robles Rhône Blend (1.5L) 2 7/23/2014 $625.00
1996 Champagne Tasting Set 4 7/23/2014 $278.73
1999 Szepsy Tokaji Aszu 6 Puttonyos (500ml) 3 7/23/2014 $310.00
2006 Sine Qua Non "The Raven No. 4" Syrah 1 7/23/2014 $222.22
1998 & 2002 Williams-Selyem Sonoma County Pinot Noir Tasting Lot 3 7/23/2014 $130.00
2004 Shafer "Hillside Select" Stags Leap District Cabernet Sauvignon 1 7/23/2014 $215.00
1999 D'Arenberg "The Dead Arm" Shiraz McLaren Vale South Australia 6 7/22/2014 $310.00
1995 Margaux, Margaux 1 7/22/2014 $430.00
2010 Tensley "Noir" Santa Barbara County Syrah 4 7/22/2014 $300.00
1999 Domaine Robert Groffier Chambolle-Musigny 1er Cru "Les Amoureuses" 3 7/22/2014 $963.00
2005 Domaine Bouchard Pere et Fils Meursault 1er Cru "Perrières" (OWC) 12 7/22/2014 $925.00
2002 Domaine William Fèvre Chablis Grand Cru "Les Clos" (OWC) 6 7/22/2014 $561.50
2004 Bond "Matriarch" Napa Valley Bordeaux Blend (OWC) 6 7/22/2014 $750.00
2001 Harlan Estate Napa Valley Proprietary Red 1 7/22/2014 $925.00
2000-2002 Dunn Napa Valley Cabernet Sauvignon Vertical (1.5L) 3 7/22/2014 $410.00
1984 Conn Creek Napa Valley Cabernet Sauvignon (6L) (OWC) 1 7/22/2014 $260.00
2010 Peter Michael "Clos du Ciel" Sonoma Coast Pinot Noir 1 7/22/2014 $640.00
2001 Haut-Brion, Pessac-Léognan 3 7/22/2014 $961.00
2007 Marcassin "Marcassin Vineyard" Sonoma Coast Pinot Noir 2 7/22/2014 $675.00
1990 Mouton-Rothschild, Pauillac (OWC) 12 7/22/2014 $4,511.00
2008 Next of Kyn (Sine Qua Non) "Cumulus Vineyard No. 2" Central Coast Syrah Mutli-Format Lot (OWC) 4 7/22/2014 $2,051.00
1996 Dalla Valle "Maya" Napa Valley Proprietary Red 3 7/22/2014 $625.00
1998 - 2000 Talley "Rosemary's Vineyard" Arroyo Grande Pinot Noir Vertical 3 7/22/2014 $160.00
2003 Radio-Coteau "Hellenthal" Sonoma Coast Pinot Noir 4 7/22/2014 $165.00
1988 California Cabernet Sauvignon Tasting Lot 6 7/22/2014 $216.00
2006 Tenimenti Luigi d`Alessandro (Manzano) "Migliara" Syrah Cortona 2 7/22/2014 $140.00
2007 Valdicava Brunello di Montalcino 3 7/22/2014 $245.00
2006 Talenti Brunello di Montalcino 4 7/22/2014 $206.01
2007 Siro Pacenti Brunello di Montalcino 4 7/22/2014 $205.00
2008 Morlet Family Vineyards "Coeur de Vallée" Beckstoffer To Kalon Cabernet Sauvignon 2 7/22/2014 $363.00
2007 M. Chapoutier "Croix de Bois" Châteauneuf-du-Pape 4 7/22/2014 $277.00
2006 Fuligni Brunello di Montalcino 4 7/22/2014 $286.00
2006 Il Paradiso di Frassina Brunello di Montalcino 4 7/22/2014 $160.00
2006 La Velona Brunello di Montalcino 6 7/22/2014 $320.00
2007-2008 Domaine Saint Damien "Vieilles Vignes" Gigondas Vertical 3 7/22/2014 $97.00
2010 Kinsella "Tamara Vineyard" Dry Creek Valley Cabernet Sauvignon (OWC) 3 7/22/2014 $215.00
2007 Domaine du Vieux Telegraphe "La Crau" Châteauneuf-du-Pape 3 7/22/2014 $235.00
2006 Caparzo Brunello di Montalcino 6 7/22/2014 $180.00
2007 Domaine de la Charbonnière "Les Hauts Brusquières Cuvée Spéciale" Châteauneuf-du-Pape 4 7/22/2014 $194.00
2006 Monteviejo "Lindaflor" Malbec Valle de Uco 4 7/22/2014 $155.00
1990 Robert Mondavi "Reserve" Napa Valley Cabernet Sauvignon 2 7/22/2014 $166.00
1994 La Croix de Gay, Pomerol 4 7/22/2014 $180.00
1994 Pavie-Decesse, St-Emilion 6 7/22/2014 $240.00
1979 Beaulieu Vineyard "Georges de Latour" Private Reserve Napa Cabernet Sauvignon 3 7/22/2014 $299.11
2005 Château de Beaucastel Châteauneuf-du-Pape 3 7/22/2014 $260.00
2001 Pride Mountain Napa Valley Cabernet Sauvignon 3 7/22/2014 $215.00
2001 Domaine Janasse "Chaupin" Châteauneuf-du-Pape 3 7/22/2014 $200.03
2011 Kistler "Cuvée Natalie- Silver Belt" Sonoma Coast Pinot Noir 2 7/22/2014 $197.00
1985 Dehlinger Russian River Valley Cabernet Sauvignon (1.5L) 1 7/22/2014 $100.00
2001 Paolo Scavino "Bric del Fiasc" Barolo (1.5L) (OWC) 1 7/22/2014 $243.85
2009 Hundred Acre "Precious" Napa Valley Cabernet Sauvignon (OWC) 2 7/22/2014 $510.00
2002-2003 Kongsgaard Napa Valley Tasting Lot 2 7/22/2014 $125.26
2007 Domaine Paul Pernot Puligny-Montrachet 1er Cru "Les Pucelles" (1.5L) 3 7/22/2014 $460.00
2011 Scarecrow "M. Étain" Napa Valley Cabernet Sauvignon (OWC) 2 7/22/2014 $255.00
2005 Pichon-Baron, Pauillac 2 7/22/2014 $280.00
1990 California Red Tasting Lot 6 7/22/2014 $180.00
1986 Joseph Phelps "Insignia" Napa Valley Bordeaux Blend (1.5L) 1 7/22/2014 $310.00
2005 Pape Clément, Pessac-Léognan 2 7/22/2014 $311.00
2009 Saxum "James Berry Vineyard" Paso Robles Rhône Blend (1.5L) 1 7/22/2014 $300.00
2005 Léoville-Barton, St-Julien 2 7/22/2014 $231.69
1998 Williams-Selyem "Coastlands Vineyard" Sonoma Coast Pinot Noir 2 7/22/2014 $87.00
2000 Shafer "Hillside Select" Napa Valley Cabernet Sauvignon 1 7/22/2014 $195.01
2007 Pierre-Yves Colin-Morey Corton-Charlemagne Grand Cru (1.5L) 1 7/22/2014 $326.00
1973 Petrus, Pomerol 1 7/21/2014 $1,280.00
2011 Schrader "Old Sparky" Napa Valley Cabernet Sauvignon (1.5L) (OWC) 1 7/21/2014 $655.00
2002 Domaine Bonneau du Martray Corton-Charlemagne Grand Cru (OWC) 12 7/21/2014 $1,340.00
2000 Chapelle d'Ausone, St.-Emilion 2 7/21/2014 $300.00
2001 Opus One Napa Valley Proprietary Red 2 7/21/2014 $485.00
2004 Caymus "Special Selection" Napa Valley Cabernet Sauvignon 2 7/21/2014 $460.58
2004 Harlan Estate Napa Valley Proprietary Red 3 7/21/2014 $1,650.00
1998 Latour, Pauillac 1 7/21/2014 $411.00
2007 Colgin "IX Estate" Napa Valley Proprietary Red 1 7/21/2014 $435.00
2010 Bond "Matriarch" Napa Valley Bordeaux Blend (OWC) 3 7/21/2014 $336.00
2009 Domaine Leflaive Chevalier-Montrachet Grand Cru (OWC) 3 7/21/2014 $1,551.00
1994 Lynch-Bages, Pauillac 4 7/21/2014 $525.00
1982 Haut-Brion, Graves (1.5L) 1 7/21/2014 $1,250.00
2002 Dalla Valle "Maya" Napa Valley Bordeaux Blend 2 7/21/2014 $795.00
2007 Peter Michael "Les Pavots" Knights Valley Bordeaux Blend (1.5L) 2 7/21/2014 $631.00
2004 Sine Qua Non "Into the Dark" Central Coast Grenache 2 7/21/2014 $800.00
1986 Lafite-Rothschild, Pauillac 6 7/21/2014 $6,480.00
2000 Pride Mountain Napa Valley Cabernet Sauvignon 3 7/21/2014 $135.00
2001-2002 Torbreck "Descendant" Shiraz Barossa Valley South Australia Vertical 3 7/21/2014 $181.00
2002 Shirvington Shiraz McLaren Vale 2 7/21/2014 $217.00
1999 Ojai "Roll Ranch Vineyard" Syrah 3 7/21/2014 $102.00
2005 Patrice Rion Charmes-Chambertin Grand Cru 4 7/21/2014 $330.00
2009 Detert Oakville Cabernet Franc 6 7/21/2014 $250.00
2002 Marquis Philips "Integrity" Shiraz McLaren Vale South Australia (Gift Boxes) 2 7/21/2014 $290.00
2010 Wise Acre St. Helena Cabernet Sauvignon (OCB) 3 7/21/2014 $300.00
2002 Henry's Drive "Reserve" Shiraz Padthaway South Australia 4 7/21/2014 $247.00
2000 Pierre Usseglio "Mon Aieul" Châteauneuf-du-Pape (1.5L) 1 7/21/2014 $161.00
2001 Domaine de la Janasse "Vielles Vignes" Châteauneuf-du-Pape 2 7/21/2014 $211.02
2007 Domaine du Vieux Telegraphe "La Crau" Châteauneuf-du-Pape (1.5L) 1 7/21/2014 $185.00
2010 Clos Saint-Jean "Sanctus Sanctorum" Chateauneuf-du-Pape (1.5L) (OWC) 1 7/21/2014 $1,050.00
1985 Moët & Chandon "Cuvée Dom Pérignon" Brut Champagne 1 7/21/2014 $310.00
2010 Donelan "Walker Vine Hill" Russian River Valley Syrah 6 7/21/2014 $225.00
1989 Dunn Napa Valley Cabernet Sauvignon (1.5L) 1 7/21/2014 $120.00
2003 Pichon-Baron, Pauillac 2 7/21/2014 $230.00
1981 Pichon-Lalande, Pauillac 1 7/21/2014 $135.00
2009 Sea Smoke "Southing" Sta. Rita Hills Pinot Noir 2 7/21/2014 $138.00
2000 Paolo Scavino "Bric del Fiasc" Barolo (1.5L) 1 7/21/2014 $247.00
2005 Domaine Grand Veneur Châteauneuf-du-Pape 2 7/21/2014 $87.00
1984 Dehlinger Russian River Valley Cabernet Sauvignon (1.5L) 1 7/21/2014 $105.00
2006 Groth Napa Valley Cabernet Sauvignon 2 7/21/2014 $84.00
2005 Château de Beaucastel Châteauneuf-du-Pape (1.5L) 1 7/21/2014 $170.00
2005 Clos des Papes Châteauneuf-du-Pape (1.5L) 1 7/21/2014 $187.50
2009 Kistler "Cuvée Elizabeth" Bodega Headlands Sonoma Coast Pinot Noir 3 7/21/2014 $345.00
2010 Paul Hobbs "Katherine Lindsay Estate--Cuvée Agustina" Russian River Valley Pinot Noir (OWC) 6 7/21/2014 $333.00
2003 Alban "Reva" Edna Valley Syrah 2 7/21/2014 $266.67
2007 Marcassin "Blue Slide Ridge" Sonoma Coast Pinot Noir 2 7/21/2014 $335.00
2011 Freestone (Joseph Phelps) "Pastorale Vineyard" Sonoma Coast Chardonnay 4 7/21/2014 $245.00
2005 Clos Fourtet, St-Emilion (1.5L - OWC) 2 7/21/2014 $471.00
2005 Palmer, Margaux 2 7/21/2014 $470.00
1998 Shafer "Hillside Select" Napa Valley Cabernet Sauvignon 1 7/21/2014 $180.01
2005 Rieussec, Sauternes 3 7/21/2014 $150.00
2005 Troplong Mondot, St-Emilion (1.5L) 1 7/21/2014 $440.00
1985 Mouton-Rothschild, Pauillac 1 7/21/2014 $340.00
2003 Clos du Marquis, St-Julien (1.5L) (OWC) 2 7/21/2014 $250.00
2000 & 2002 Williams Selyem Russian River Valley Zinfandel Tasting Lot 4 7/21/2014 $140.00
2007 Sine Qua Non "Body & Soul" Roussanne-Viognier 1 7/21/2014 $165.00
2011 Saxum "Heart Stone Vineyard" Paso Robles Rhône Blend 1 7/21/2014 $110.10
2003 Harlan Estate Napa Valley Proprietary Red (OWC) 3 7/20/2014 $1,550.00
2004 Angélus, St-Emilion (1.5L) 1 7/20/2014 $350.00
1999 Echézeaux Grand Cru Tasting Set 5 7/20/2014 $480.00
1999 Echézeaux Grand Cru Tasting Set 5 7/20/2014 $460.00
2011 Scarecrow Napa Valley Cabernet Sauvignon (OWC) 3 7/20/2014 $975.00
1990 Nuits-St-Georges 1er Cru "Les Perrières" Tasting Set 5 7/20/2014 $330.00
1999 Armand Rousseau Gevrey-Chambertin "Clos Saint Jacques" 1 7/20/2014 $900.00
1995 Faiveley Corton Grand Cru "Clos des Cortons" 4 7/20/2014 $476.00
1990 Domaine Comte Georges de Vogüé Musigny Grand Cru Vieilles Vignes 1 7/20/2014 $500.00
2007 Domaine Henri Boillot Puligny-Montrachet 1er Cru "Clos de la Mouchère" 4 7/20/2014 $460.00
2004 Cune Rioja Imperial Gran Reserva 3 7/20/2014 $345.00
1990 Montrose, St-Estèphe 1 7/20/2014 $460.00
2007 Domaine Leflaive Bienvenues-Bâtard-Montrachet (3L) (OWC) 1 7/20/2014 $1,351.00
1992 Lafite-Rothschild, Pauillac 2 7/20/2014 $930.00
1982 Mouton-Rothschild, Pauillac 1 7/20/2014 $1,215.00
2001 Domaine Beaurenard "Cuvée Boisrenard" Châteauneuf-du-Pape 3 7/20/2014 $191.25
2003 Lynch-Bages, Pauillac 1 7/20/2014 $161.00
1995 Moet & Chandon "Cuvée Dom Pérignon" Brut Champagne 1 7/20/2014 $171.00
2004-2005 Clos St. Jean Châteauneuf-du-Pape Vertical 4 7/20/2014 $140.00
1994 Haut-Brion, Pessac-Léognan 1 7/20/2014 $321.00
1979 Jean-Louis Chave Hermitage Blanc 1 7/20/2014 $408.00
2002 Bond "Matriarch" Napa Valley Bordeaux Blend 3 7/20/2014 $299.00
1986 Dunn Howell Mountain Cabernet Sauvignon 1 7/20/2014 $140.00
1985 Camus Pere & Fils Chambertin Grand Cru 1 7/20/2014 $185.00
1981 Ridge Vineyards "Monte Bello" Santa Cruz Mountains Cabernet Sauvignon 1 7/20/2014 $185.00
1997 E. Guigal "La Turque" Cote Rotie 1 7/20/2014 $343.00
1968 Beaulieu Vineyard Napa Valley Cabernet Sauvignon 2 7/20/2014 $210.00
2007 Sea Smoke "Southing" Sta. Rita Hills Pinot Noir 2 7/20/2014 $186.09
2001 Siro Pacenti Brunello di Montalcino 2 7/20/2014 $226.00
1990 Giuseppe Quintarelli "Amabile del Cere" Bianco Veneto (375ml) 1 7/20/2014 $191.05
2006 Rubicon Estate "Rubicon" Rutherford Bordeaux Blend 3 7/20/2014 $245.00
2004 Pontet-Canet, Pauillac (1.5L) 1 7/20/2014 $225.00
2001 Pio Cesare Barolo (1.5L) 1 7/20/2014 $236.00
2005 Philippe Delesvaux "Sélection de Grains Nobles" Coteaux du Layon (500ml) 2 7/20/2014 $108.56
2003 Domaine Grand Veneur "Les Origines" Châteauneuf-du-Pape 3 7/20/2014 $171.00
2004 Clos des Papes Châteauneuf-du-Pape (1.5L) 1 7/20/2014 $181.00
2000 Paolo Scavino "Bric del Fiasc" Barolo 1 7/20/2014 $125.00
2002 Paul Hobbs "Beckstoffer To-Kalon" Oakville Cabernet Sauvignon 1 7/20/2014 $450.00
2006 Groth "Reserve" Oakville Cabernet Sauvignon 2 7/20/2014 $175.00
2007 Château de Beaucastel Châteauneuf-du-Pape (1.5L) 1 7/20/2014 $170.50
1994 Dominus Estate Napa Valley Proprietary Red 1 7/20/2014 $220.00
2007 Kistler "Cuvée Elizabeth Bodega Headlands Vineyard" Sonoma Coast Pinot Noir 2 7/20/2014 $290.00
2004-2006 Marcassin "Three Sisters Vineyard" Sonoma Coast Chardonnay Vertical 3 7/20/2014 $430.00
2004 Dalla Valle Napa Valley Cabernet Sauvignon 3 7/20/2014 $298.00
2001 Peter Michael Les Pavots Knights Valley Red (1.5L) 1 7/20/2014 $361.00
2003 Pahlmeyer Napa Valley Bordeaux Blend (1.5L) 1 7/20/2014 $175.00
2000 Pichon-Lalande, Pauillac (1.5L) 1 7/20/2014 $411.01
2002 Shafer "Hillside Select" Stags Leap District Cabernet Sauvignon 1 7/20/2014 $425.01
2002 Joseph Phelps "Insignia" Napa Valley Bordeaux Blend (1.5L) 1 7/20/2014 $685.00
1998 Domaine Thierry Allemand "Reynard" Cornas 3 7/20/2014 $910.00
2001 Rieussec, Sauternes (375ml) 2 7/20/2014 $195.00
1987 Heitz Cellar "Bella Oaks" Napa Valley Cabernet Sauvignon 3 7/20/2014 $160.00
2006 Sine Qua Non "The Raven No. 3" Syrah 1 7/20/2014 $230.00
2011 Saxum "Terry Hoage" Paso Robles Rhône Blend 1 7/20/2014 $105.00
1998-2000 Williams Selyem Sonoma County Chardonnay Tasting Lot 12 7/20/2014 $322.00
2005 La Mission Haut-Brion, Pessac-Léognan 2 7/19/2014 $751.00
1999 Tenuta dell'Ornellaia "Masseto" 1 7/19/2014 $490.00
2004 Colgin "Cariad" Napa Valley Bordeaux Blend 1 7/19/2014 $435.00
1985 Mommessin Clos de Tart Grand Cru 1 7/19/2014 $500.00
1988 Giacomo Conterno "Monfortino" Barolo Riserva 2 7/19/2014 $1,175.00
1988 d'Yquem, Sauternes 1 7/19/2014 $372.00
2006 Valdicava "Madonna del Piano" Brunello di Montalcino Riserva 2 7/19/2014 $383.00
2005 Araujo "Eisele Vineyard" Napa Valley Cabernet Sauvignon (3L) (OWC) 1 7/19/2014 $1,040.00
2009 Domaine Leflaive Bâtard-Montrachet Grand Cru (OWC) 6 7/19/2014 $2,001.00
2012 Aubert "Lauren Vineyard" Sonoma County Chardonnay 6 7/19/2014 $985.00
2005 Malescot-St-Exupéry, Margaux (1.5L) 3 7/19/2014 $725.00
1989 Lynch-Bages, Pauillac 1 7/19/2014 $360.00
2000 Pichon-Lalande, Pauillac 3 7/19/2014 $550.00
1996 Lafite Rothschild, Pauillac 1 7/19/2014 $1,001.00
1969 Heitz Cellar "Martha's Vineyard" Napa Valley Cabernet Sauvignon 2 7/19/2014 $755.00
2002 Dominus Napa Valley Proprietary Red (OWC) 6 7/19/2014 $1,450.00
1988 Margaux, Margaux (375ml) 3 7/19/2014 $540.00
2004 Pio Cesare Barolo 1 7/19/2014 $82.00
2000 Paolo Scavino Barolo Horizontal 2 7/19/2014 $162.57
2003 Léoville-Barton, St-Julien (1.5L) 1 7/19/2014 $276.00
2004 Domaine du Vieux Télégraphe "La Crau" Châteauneuf-du-Pape (1.5L) 1 7/19/2014 $171.02
2001 La Fortuna Brunello di Montalcino 1.5L 1 7/19/2014 $100.00
2005 Marquis d'Alesme Becker, Margaux (1.5L) 2 7/19/2014 $100.00
2007 Domaine de Saint Préfert "Réserve Auguste Favier" Châteauneuf-du-Pape (1.5L) 1 7/19/2014 $165.99
2003 Domaine du Pégaü "Cuvée Reservée" Châteauneuf-du-Pape (1.5L) 1 7/19/2014 $250.00
2005 Léoville-Poyferré, St-Julien 2 7/19/2014 $232.00
2007 Domaine de Cristia Châteauneuf-du-Pape Vieilles Vignes (1.5L) 1 7/19/2014 $170.00
2005 Domaine de la Janasse "Vieilles Vignes" Chateauneuf-du-Pape (1.5L) 1 7/19/2014 $240.00
2004 Le Vieux Donjon Châteauneuf-du-Pape 2 7/19/2014 $106.11
2005 Domaine De La Charbonnière "Cuvée Mourre des Perdix" Châteauneuf-du-Pape 5 7/19/2014 $213.08
2001 Conterno Fantino "Sori Ginestra" Barolo 1 7/19/2014 $141.00
2005 Domaine Grand Veneur Châteauneuf-du-Pape (1.5L) 1 7/19/2014 $83.00
2004 Château de Beaucastel Châteauneuf-du-Pape 2 7/19/2014 $170.00
2001 Castelgiocondo Brunello di Montalcino (1.5L) (OWC) 1 7/19/2014 $155.00
2005 Groth "Reserve" Oakville Cabernet Sauvignon 2 7/19/2014 $175.00
2005 Caronne Ste-Gemme, Haut-Médoc (1.5L) 1 7/19/2014 $54.58
2007 Kosta Browne Sonoma Coast Pinot Noir Horizontal 2 7/19/2014 $200.00
2007 Kistler "Cuvée Catherine" Occidental Station Pinot Noir 4 7/19/2014 $601.00
1982 Cos d'Estournel, St-Estèphe 1 7/19/2014 $270.00
2009 Paul Hobbs "Lindsay Estate" Russian River Valley Pinot Noir (1.5L) 1 7/19/2014 $155.00
2006 Marcassin "Marcassin Vineyard" Sonoma Coast Chardonnay 2 7/19/2014 $330.00
2002 Peter Michael "Les Pavots" Knights Valley Bordeaux Blend (1.5L) 1 7/19/2014 $350.57
2002 Joseph Phelps "Insignia" Napa Valley Bordeaux Blend 1 7/19/2014 $290.00
2007 Clos des Papes Châteauneuf-du-Pape 2 7/19/2014 $370.00
2003 Da